                ,  0.290,  0.386,  0.483,  0.580,  0.676,  0.773,  0.869,  0.966,  1.063,  1.159,  1.256,  1.352,  1.449,  1.545,  1.642,  1.739,  1.835,  1.932,  2.028,  2.125,  2.222,  2.318,  2.415,  2.511,  2.608,  2.705,  2.801,  2.898,  2.994,  3.091,  3.188,  3.284,  3.381,  3.477,  3.574,  3.671,  3.767,  3.864,  3.960,  4.057,  4.153,  4.250,  4.347,  4.443,  4.540,  4.636,  4.733,  4.830,  4.926,  5.023,  5.119,  5.216,  5.313,  5.409,  5.506,  5.602,  5.699,  5.796
2000/12/24 00:00,  999.0,    6.2,  999.0,    7.0,    8.5,   13.6,   13.9,   12.3,   12.5,   12.0,   11.9,   13.0,  999.0,   12.2,  999.0,  999.0,  999.0,  999.0,  999.0,  999.0,  999.0,  999.0,  999.0,  999.0,  999.0,  999.0,  999.0,  999.0,  999.0,  999.0,  999.0,  999.0,  999.0,  999.0,  999.0,  999.0,  999.0,  999.0,  999.0,  999.0,  999.0,  999.0,  999.0,  999.0,  999.0,  999.0,  999.0,  999.0,  999.0,  999.0,  999.0,  999.0,  999.0,  999.0,  999.0,  999.0,  999.0,  999.0
2000/12/24 00:10,  999.0,    7.8,    6.7,    9.6,   10.1,   11.1,   12.4,   11.2,   11.7,   11.3,   12.0,   12.1,   11.9,   13.0,   12.3,   21.7,  999.0,  999.0,  999.0,  999.0,  999.0,  999.0,  999.0,  999.0,  999.0,  999.0,  999.0,  999.0,  999.0,  999.0,  999.0,  999.0,  999.0,  999.0,  999.0,  999.0,  999.0,  999.0,  999.0,  999.0,  999.0,  999.0,  999.0,  999.0,  999.0,  999.0,  999.0,  999.0,  999.0,  999.0,  999.0,  999.0,  999.0,  999.0,  999.0,  999.0,  999.0,  999.0
2000/12/24 00:20,  999.0,    6.1,   10.0,   10.1,   12.1,   12.8,   11.9,   11.5,   11.5,   11.6,   12.4,   11.8,   12.3,   12.5,  999.0,  999.0,  999.0,  999.0,  999.0,  999.0,  999.0,  999.0,  999.0,  999.0,  999.0,  999.0,  999.0,  999.0,  999.0,  999.0,  999.0,  999.0,  999.0,  999.0,  999.0,  999.0,  999.0,  999.0,  999.0,  999.0,  999.0,  999.0,  999.0,  999.0,  999.0,  999.0,  999.0,  999.0,  999.0,  999.0,  999.0,  999.0,  999.0,  999.0,  999.0,  999.0,  999.0,  999.0
2000/12/24 00:30,  999.0,    5.2,    5.0,    8.6,   11.6,   12.7,   12.5,   11.7,   11.1,   12.2,   12.6,  999.0,   21.2,  999.0,  999.0,  999.0,   21.7,  999.0,  999.0,  999.0,   21.3,   19.8,  999.0,   19.6,  999.0,  999.0,   20.0,   19.8,  999.0,   22.1,   22.1,  999.0,   19.5,   19.2,   19.1,   18.4,  999.0,  999.0,   21.4,   21.0,   17.7,   19.3,   17.5,   20.7,  999.0,  999.0,  999.0,   21.5,  999.0,  999.0,  999.0,  999.0,  999.0,  999.0,  999.0,  999.0,  999.0,  999.0
2000/12/24 00:40,  999.0,    5.8,    8.4,   10.2,  999.0,   11.6,   11.8,   20.6,  999.0,  999.0,  999.0,   21.5,   20.3,   20.4,   20.9,   20.7,  999.0,  999.0,   21.1,   21.3,  999.0,   20.6,   20.8,   20.6,   20.9,  999.0,   21.1,   21.0,   21.8,   20.7,   21.4,   21.6,   20.8,   21.2,   21.1,   20.9,   20.7,  999.0,  999.0,  999.0,  999.0,  999.0,  999.0,  999.0,  999.0,  999.0,  999.0,  999.0,  999.0,  999.0,  999.0,  999.0,  999.0,  999.0,  999.0,  999.0,  999.0,  999.0
2000/12/24 00:50,  999.0,    5.3,    6.5,    4.6,  999.0,   10.6,   11.2,   11.3,  999.0,   12.1,   12.1,   12.7,   20.9,  999.0,   10.5,  999.0,   16.1,   14.5,   17.9,   21.2,  999.0,   21.8,   15.1,  999.0,   20.6,  999.0,   20.7,  999.0,   21.1,   16.9,   21.3,  999.0,  999.0,  999.0,   20.8,  999.0,  999.0,   21.5,  999.0,  999.0,  999.0,   21.5,   20.6,   17.4,   21.2,   12.8,  999.0,  999.0,  999.0,  999.0,  999.0,   21.5,  999.0,  999.0,  999.0,  999.0,  999.0,  999.0
2000/12/24 01:00,  999.0,    5.9,    8.8,    8.9,  999.0,    8.9,    9.2,   10.7,   12.1,   10.8,   11.7,   13.8,   12.5,   12.2,   11.6,   11.1,   11.8,  999.0,  999.0,  999.0,   21.1,  999.0,   21.8,  999.0,   22.0,  999.0,   21.4,   22.0,   21.0,   21.3,   21.4,  999.0,   22.1,  999.0,   21.3,  999.0,  999.0,   21.8,   21.5,   20.5,   21.0,   21.5,  999.0,   22.2,   22.6,   21.8,  999.0,   21.4,   22.0,  999.0,  999.0,  999.0,  999.0,  999.0,   21.6,   21.6,   20.8,   20.4
2000/12/24 01:10,  999.0,    6.1,  999.0,    8.0,  999.0,   12.4,   12.8,   13.5,  999.0,   12.6,   13.1,   11.7,   13.4,   12.5,   14.6,   12.4,   11.7,   10.8,   22.0,  999.0,  999.0,  999.0,  999.0,  999.0,  999.0,  999.0,  999.0,  999.0,  999.0,  999.0,  999.0,  999.0,  999.0,  999.0,  999.0,   20.7,   21.3,  999.0,  999.0,  999.0,  999.0,  999.0,   21.2,  999.0,   21.6,  999.0,  999.0,   22.0,  999.0,  999.0,  999.0,   21.5,  999.0,   21.9,  999.0,  999.0,  999.0,   21.2
2000/12/24 01:20,  999.0,    6.3,    7.4,  999.0,    6.4,   10.6,   11.8,   12.6,   12.3,   13.8,   16.7,  999.0,  999.0,  999.0,   21.3,   17.7,   16.7,   20.5,  999.0,   20.9,   20.3,  999.0,   21.0,   17.0,   15.0,   14.8,  999.0,  999.0,   11.8,  999.0,   10.2,   20.9,    8.4,   21.1,    6.8,   13.1,   21.2,    3.1,   12.1,    1.6,  999.0,    0.2,   20.4,   21.0,    0.4,  999.0,    0.6,  999.0,   20.4,   10.9,    0.8,   20.6,    0.6,    0.7,   11.1,   -0.1,    1.4,    0.5
2000/12/24 01:30,  999.0,  999.0,    5.5,    8.0,    8.4,    8.9,   10.3,   11.1,   11.8,   12.0,   16.7,   18.0,  999.0,  999.0,   21.8,  999.0,  999.0,   21.5,  999.0,   22.9,  999.0,  999.0,   24.7,   17.8,  999.0,   24.6,  999.0,   15.3,   15.9,   14.9,  999.0,  999.0,  999.0,   22.6,  999.0,   21.8,   22.3,  999.0,    9.0,  999.0,    7.5,  999.0,  999.0,    6.0,    5.5,   12.3,   12.3,  999.0,   11.4,   11.1,    1.8,    0.8,  999.0,  999.0,    5.2,  999.0,    0.5,  999.0
2000/12/24 01:40,  999.0,    5.3,    5.8,    4.5,  999.0,  999.0,   12.7,   12.3,    2.6,  999.0,  999.0,  999.0,  999.0,  999.0,  999.0,  999.0,   21.5,  999.0,  -12.3,    4.1,  -12.7,  -13.4,  999.0,    3.4,   15.7,  999.0,   14.8,   15.5,   14.4,  999.0,  999.0,  999.0,  999.0,  999.0,    9.5,   -4.2,    9.6,  999.0,    8.0,    8.0,    7.7,  999.0,    6.5,    3.8,  -10.9,  999.0,  999.0,  999.0,    1.8,    0.9,  999.0,  999.0,  999.0,  999.0,  999.0,  999.0,  999.0,  999.0
2000/12/24 01:50,  999.0,  999.0,  999.0,  999.0,   16.0,    5.0,  999.0,  999.0,    9.3,    9.9,  999.0,   13.2,   12.1,   11.4,   11.6,  999.0,   17.2,   20.1,   12.4,   19.9,   21.0,   19.7,   18.9,   19.0,   16.1,   15.4,   15.3,   15.3,   13.8,   12.5,   -8.7,   11.1,   10.8,    9.8,    8.9,  -34.1,  999.0,  999.0,  -15.6,    5.6,    4.9,    2.9,    3.5,    1.7,    3.6,    4.1,  -15.4,    1.3,   -7.2,    2.0,  -17.9,    1.0,  999.0,    0.6,    0.9,    1.2,  999.0,    1.1
2000/12/24 02:00,  999.0,    5.6,    9.9,    6.7,  999.0,   15.1,   21.1,   12.5,   13.3,   14.4,   14.4,  999.0,   11.0,   10.9,   11.8,   11.2,   12.1,   13.3,   11.4,   12.4,   19.9,   18.3,   17.9,   16.7,   15.7,   15.2,   13.7,  999.0,   12.4,   11.7,   10.1,  999.0,    8.1,  999.0,    6.2,    5.2,  999.0,    3.0,    2.7,    1.3,    1.8,    2.2,    1.9,    1.7,    1.3,    1.3,    0.6,  999.0,    0.9,    0.3,  999.0,    1.0,    0.3,    0.2,    0.6,    0.9,    0.8,    0.9
2000/12/24 02:10,  999.0,    0.3,    3.8,   16.4,   15.6,   21.4,   21.9,   15.8,   14.4,   12.8,   13.2,   13.1,   13.2,  999.0,  999.0,   10.4,   11.6,   12.3,   11.3,   10.3,  999.0,  999.0,  999.0,  999.0,  999.0,  999.0,  999.0,  999.0,   10.1,  999.0,  999.0,    7.3,    6.5,  999.0,  999.0,    2.9,  999.0,  999.0,    0.7,    0.6,    0.6,  999.0,  999.0,  999.0,    1.5,    0.1,  999.0,  999.0,    0.7,  999.0,  999.0,  999.0,  999.0,  999.0,  999.0,  999.0,  999.0,    0.5
2000/12/24 02:20,  999.0,   21.7,   15.0,  999.0,  999.0,  999.0,   11.4,   16.8,   11.2,   13.4,   14.2,  999.0,  999.0,  999.0,  999.0,   11.4,  999.0,  999.0,  999.0,    6.5,  999.0,    3.9,    3.9,    2.8,    3.1,  999.0,  999.0,   -4.7,  999.0,  999.0,  999.0,  999.0,  999.0,  999.0,  999.0,  999.0,  999.0,  999.0,  999.0,  999.0,  999.0,  999.0,    0.2,  999.0,  999.0,  999.0,   -0.0,  999.0,    0.8,  999.0,    1.0,  999.0,   -0.9,  999.0,    0.2,  999.0,    0.7,    0.7
2000/12/24 02:30,  999.0,   21.7,   22.4,   22.2,  999.0,   14.2,   10.5,   11.0,   11.6,   12.8,  999.0,   13.5,  999.0,  999.0,  999.0,   11.6,  999.0,  999.0,  999.0,  999.0,  999.0,    7.1,  999.0,    3.9,  999.0,  999.0,  999.0,  999.0,  999.0,    4.4,  999.0,    4.2,    1.2,  999.0,    1.3,  999.0,    0.6,    0.9,    0.1,    1.0,    0.4,    1.2,  999.0,    0.3,    0.6,    0.9,  999.0,    0.4,    0.5,    0.7,    0.6,    1.1,    1.2,    1.0,    0.7,    1.4,    0.9,    0.9
2000/12/24 02:40,  999.0,    7.3,   16.7,   11.1,  999.0,  999.0,   13.3,   17.4,   11.7,  999.0,   15.2,  999.0,   15.5,  999.0,  999.0,  999.0,   11.7,  999.0,  999.0,  999.0,    6.4,    5.0,    4.3,  999.0,  999.0,   10.4,  999.0,  999.0,    1.6,    3.4,    5.0,    3.7,    3.9,    1.9,    2.6,   -0.2,    0.8,  999.0,  999.0,    0.8,    1.0,    0.7,  999.0,    0.2,    0.7,    0.1,    0.7,    0.9,    0.6,    0.7,    0.9,    1.0,  999.0,  999.0,    0.6,    0.5,    0.2,    0.6
2000/12/24 02:50,  999.0,  999.0,  999.0,  999.0,   18.3,   -0.6,   12.1,   13.5,  999.0,  999.0,   13.4,   21.6,  999.0,   16.8,   16.8,    9.6,   12.6,  999.0,   21.4,   11.4,  999.0,    9.3,    7.9,   20.9,  999.0,   17.7,   20.7,  999.0,  999.0,   15.4,    9.6,  999.0,  999.0,  999.0,  999.0,    6.3,  999.0,    3.1,  999.0,   -0.2,  999.0,    1.0,   10.5,   10.8,   20.2,   -0.0,    0.4,    9.8,    0.2,    0.5,    0.2,    1.1,    1.1,    9.5,  999.0,    0.2,    0.7,    0.8
2000/12/24 03:00,  999.0,  999.0,  999.0,  999.0,   13.0,   12.6,   14.3,   17.7,  999.0,   13.5,   13.3,   13.6,  999.0,   12.4,   12.2,   12.8,   13.3,  999.0,  999.0,  999.0,  999.0,    8.5,    8.5,    4.6,  999.0,  999.0,  999.0,  999.0,  999.0,  999.0,    9.2,  999.0,    4.7,    3.0,    4.0,    1.4,    0.4,  999.0,    0.7,  999.0,  999.0,    1.1,    1.1,    1.1,    1.3,    1.1,    0.9,    1.1,    0.7,    0.4,    0.3,    1.7,    1.0,    1.1,    0.8,    0.8,    1.5,    0.3
2000/12/24 03:10,  999.0,  999.0,  999.0,    8.0,  999.0,  999.0,  999.0,   13.1,   15.2,  999.0,   13.1,   13.3,  999.0,   11.7,   12.8,   12.3,  999.0,  999.0,   10.6,   10.1,    8.5,  999.0,    6.4,    5.8,    4.0,  999.0,  999.0,  999.0,    6.9,    6.4,    7.5,    7.2,    4.6,  999.0,    1.9,    1.2,    1.5,    0.0,    0.4,    0.7,    1.0,    0.6,    0.1,    0.4,    0.3,    0.8,    0.9,    0.9,    1.2,    0.8,  999.0,  999.0,  999.0,    0.6,    0.8,    0.5,    0.9,  999.0
2000/12/24 03:20,  999.0,  999.0,  999.0,    9.5,  999.0,  999.0,   10.9,  999.0,  999.0,  999.0,   11.4,  999.0,  999.0,   11.7,   12.3,   12.8,   12.2,  999.0,  999.0,   11.5,  999.0,  999.0,  999.0,  999.0,  999.0,  999.0,  999.0,  999.0,   12.6,    9.1,    8.6,    6.6,    2.7,    4.0,    3.1,    3.4,    2.2,  999.0,    1.0,    0.8,    0.4,    1.3,    0.5,    0.3,    1.3,    1.0,    0.7,    0.5,    0.7,    0.6,  999.0,    0.3,    0.9,    0.7,    0.5,    0.1,  999.0,    0.2
2000/12/24 03:30,  999.0,   10.4,   13.4,    9.0,    7.9,    9.9,  999.0,   11.2,   11.0,  999.0,  999.0,   12.1,  999.0,  999.0,  999.0,  999.0,  999.0,  999.0,   11.2,  999.0,  999.0,  999.0,  999.0,  999.0,    4.0,    7.8,   12.2,   10.2,    9.2,    8.4,    7.3,    7.7,    6.2,  999.0,  999.0,    3.7,  999.0,    1.7,    1.8,    0.5,  999.0,  999.0,  999.0,  999.0,    0.8,    0.6,  999.0,    0.5,  999.0,    0.2,  999.0,  999.0,    0.7,    0.7,    0.5,  999.0,    0.7,    0.3
2000/12/24 03:40,  999.0,  999.0,   19.8,   19.2,   24.0,  999.0,    8.0,  999.0,  999.0,  999.0,  999.0,   10.2,  999.0,  999.0,  999.0,  999.0,   11.9,  999.0,   20.7,  999.0,   17.7,  999.0,  999.0,   14.8,    9.8,    8.1,    3.3,    8.1,    6.6,   -0.1,   -0.9,    4.6,    3.3,    2.3,    2.3,    0.4,    0.7,    1.2,    1.0,    0.5,    0.4,   -0.0,    0.6,  999.0,    0.0,    1.7,    0.7,    0.9,    0.7,    0.3,    1.1,    0.4,    0.6,  999.0,    1.0,  999.0,    1.2,    1.3
2000/12/24 03:50,  999.0,   21.6,   17.5,   18.2,  999.0,  999.0,  999.0,   16.2,   12.8,   17.3,   23.3,  999.0,  999.0,  999.0,   16.5,  999.0,  999.0,  999.0,  999.0,   17.2,  999.0,   14.8,  999.0,   13.8,   11.6,  999.0,   10.7,  999.0,    8.6,    7.2,    6.4,    4.7,    3.6,    2.4,    1.5,  999.0,    0.6,    1.3,    0.9,    0.2,    0.7,   -0.9,    0.4,    0.8,    1.5,    1.0,    0.6,    0.3,  999.0,    1.3,  999.0,    0.5,  999.0,    0.3,   -0.2,    0.5,  999.0,    0.7
2000/12/24 04:00,  999.0,  999.0,  999.0,    9.3,  999.0,  999.0,  999.0,  999.0,    8.4,   22.1,  999.0,  999.0,   20.4,  999.0,   22.2,  999.0,   20.8,  999.0,   18.8,   18.9,  999.0,   17.2,   16.7,   14.7,  999.0,   15.1,   12.9,  999.0,   11.8,   11.7,    1.5,    8.2,  999.0,  999.0,  999.0,    3.7,    5.0,    2.3,  999.0,    1.8,    1.0,    0.4,    0.3,    0.3,   -0.3,  999.0,    0.9,  999.0,    0.8,  999.0,    0.6,  999.0,  999.0,  999.0,    1.1,  999.0,  999.0,   -0.3
2000/12/24 04:10,  999.0,    7.0,    9.3,    5.3,    5.2,    7.3,   26.2,   16.1,  999.0,   10.6,   11.1,   13.2,  999.0,  999.0,  999.0,  999.0,  999.0,  999.0,  999.0,  999.0,  999.0,  999.0,  999.0,  999.0,  999.0,  999.0,  999.0,  999.0,  999.0,  999.0,   -0.6,  999.0,  999.0,  999.0,  999.0,  999.0,  999.0,  999.0,  999.0,  999.0,  999.0,  999.0,  999.0,  999.0,  999.0,  999.0,  999.0,  999.0,  999.0,  999.0,  999.0,  999.0,  999.0,  999.0,  999.0,  999.0,  999.0,  999.0
2000/12/24 04:20,  999.0,  999.0,   16.6,  999.0,    6.3,    1.4,  999.0,  999.0,    9.6,    9.5,   10.4,   13.8,  999.0,  999.0,  999.0,    5.3,  999.0,  999.0,  999.0,  999.0,  999.0,  999.0,  999.0,  999.0,    5.6,    5.2,    5.3,  999.0,  999.0,  999.0,  999.0,   -0.2,  999.0,  999.0,  999.0,  999.0,  999.0,  999.0,  999.0,  999.0,  999.0,  999.0,  999.0,  999.0,  999.0,  999.0,  999.0,  999.0,  999.0,  999.0,  999.0,  999.0,  999.0,  999.0,  999.0,  999.0,  999.0,  999.0
2000/12/24 04:30,  999.0,  999.0,    6.2,  999.0,    6.2,    4.5,  999.0,    6.8,  999.0,    9.2,    9.4,  999.0,  999.0,  999.0,  999.0,  999.0,  999.0,  999.0,  999.0,    8.6,  999.0,  999.0,  999.0,  999.0,  999.0,    1.9,    4.1,  999.0,  999.0,  999.0,   -3.1,  999.0,  999.0,  999.0,  999.0,  999.0,  999.0,  999.0,  999.0,  999.0,  999.0,  999.0,  999.0,  999.0,  999.0,  999.0,  999.0,  999.0,  999.0,  999.0,  999.0,  999.0,  999.0,  999.0,  999.0,  999.0,  999.0,  999.0
2000/12/24 04:40,  999.0,    2.9,    3.8,    3.3,    4.6,   -1.9,  999.0,    4.1,    6.4,  999.0,    0.3,   -1.0,  999.0,   13.8,  999.0,  999.0,  999.0,  999.0,  999.0,   12.5,  999.0,  999.0,  999.0,  999.0,  999.0,  -13.9,  999.0,  999.0,   -3.9,  999.0,   -5.7,   -8.1,  999.0,   -6.5,  999.0,  999.0,  999.0,  999.0,  999.0,  999.0,  999.0,  999.0,  999.0,  999.0,  999.0,  999.0,  999.0,  999.0,  999.0,  999.0,  999.0,  999.0,  999.0,  999.0,  999.0,  999.0,  999.0,  999.0
2000/12/24 04:50,  999.0,    6.0,    4.4,    3.1,    4.7,    5.5,    6.8,    9.2,    7.0,    7.3,    0.2,  999.0,  999.0,    0.9,   -1.5,  999.0,  999.0,  999.0,  999.0,  999.0,   15.3,  999.0,  999.0,  999.0,  999.0,  999.0,  999.0,  999.0,    3.7,    0.8,    0.2,  999.0,   -4.0,    0.3,  999.0,  999.0,  999.0,  999.0,  999.0,  999.0,  999.0,  999.0,  999.0,  999.0,  999.0,  999.0,  999.0,  999.0,  999.0,  999.0,  999.0,  999.0,  999.0,  999.0,  999.0,  999.0,  999.0,  999.0
2000/12/24 05:00,  999.0,    1.9,    2.1,  999.0,    5.1,    5.6,  999.0,    9.3,   10.1,  999.0,    0.1,  999.0,  999.0,  999.0,    9.1,   12.3,  999.0,  999.0,  999.0,   12.9,   13.8,   14.4,  999.0,  999.0,  999.0,  999.0,  999.0,  999.0,  999.0,  999.0,  999.0,  999.0,   -4.8,  999.0,  999.0,  999.0,  999.0,  999.0,  999.0,  999.0,  999.0,  999.0,  -12.4,  999.0,  999.0,  999.0,  999.0,  999.0,  999.0,  999.0,  999.0,  999.0,  999.0,  999.0,  999.0,  999.0,  999.0,  999.0
2000/12/24 05:10,  999.0,    4.3,    4.3,    4.1,    2.4,    5.2,    8.3,    8.4,    9.3,    1.7,  999.0,    9.6,   10.4,  999.0,   10.0,   11.2,  999.0,  999.0,    9.5,   11.0,   11.8,   10.6,  999.0,  999.0,  999.0,  999.0,  999.0,  999.0,    0.2,  999.0,   -1.0,   -1.9,   -2.7,  999.0,  999.0,  999.0,  999.0,  999.0,  999.0,  999.0,  999.0,  999.0,  999.0,  999.0,  999.0,  999.0,  999.0,  999.0,  999.0,  999.0,  999.0,  999.0,  999.0,  999.0,  999.0,    1.2,  -12.2,  -12.3
2000/12/24 05:20,  999.0,   -1.4,    2.2,    2.4,    4.1,    5.1,    7.6,  999.0,  999.0,  999.0,   10.0,   10.4,   11.0,  999.0,   11.0,   13.8,  999.0,   10.4,   10.1,    9.7,   10.5,  999.0,  999.0,  999.0,    5.6,    5.8,  999.0,  999.0,  999.0,  999.0,   -3.8,  999.0,   -4.9,  999.0,  999.0,  999.0,  999.0,  999.0,  999.0,  999.0,  999.0,  999.0,  999.0,  999.0,  999.0,  999.0,  999.0,  999.0,  999.0,  999.0,  999.0,  999.0,  999.0,  999.0,  -12.2,  999.0,  -11.4,  999.0
2000/12/24 05:30,  999.0,  999.0,  999.0,   10.2,    5.4,    7.4,   13.9,   11.9,  999.0,   15.7,   17.2,   10.5,   11.2,   11.7,  999.0,  999.0,   10.0,  999.0,    9.8,    8.4,  999.0,  999.0,  999.0,  999.0,  999.0,    3.2,    2.9,    1.0,  -11.1,   -2.7,   -4.5,   -7.1,   -8.9,  999.0,  999.0,  999.0,  999.0,  999.0,  999.0,  999.0,  999.0,  999.0,  999.0,  999.0,  999.0,  999.0,  999.0,    1.9,  999.0,  -15.3,  999.0,    0.5,  999.0,  999.0,    0.7,  999.0,  999.0,  999.0
2000/12/24 05:40,  999.0,  999.0,  999.0,   10.9,   11.4,  999.0,    8.6,   12.7,   12.7,  999.0,  999.0,    9.8,   11.2,  999.0,   10.0,   10.6,   12.0,   11.4,    8.7,    8.7,  999.0,  999.0,    9.9,  999.0,  999.0,  999.0,   -0.0,   -0.9,   -1.8,  999.0,  999.0,  999.0,  999.0,  999.0,  999.0,  999.0,  999.0,  999.0,  999.0,  999.0,  999.0,  999.0,  999.0,  999.0,  999.0,  999.0,  -12.2,  999.0,  999.0,  999.0,  999.0,  999.0,  999.0,  999.0,   -9.0,    0.5,  999.0,  999.0
2000/12/24 05:50,  999.0,  999.0,  999.0,   17.8,  999.0,  999.0,  999.0,   14.6,   16.4,   17.7,   11.2,    9.9,   10.2,   11.2,   10.3,  999.0,  999.0,  999.0,  999.0,   11.3,   10.0,  999.0,  999.0,  999.0,  999.0,    1.4,    0.9,  999.0,    0.3,    0.7,  999.0,    1.1,    1.1,  999.0,  999.0,    1.4,    0.5,    0.6,  999.0,    1.2,  999.0,    0.9,  999.0,    0.7,  999.0,    0.8,    0.7,    0.6,    0.9,  999.0,  999.0,  999.0,  999.0,  999.0,    1.0,  999.0,  999.0,    1.1
2000/12/24 06:00,  999.0,  999.0,  999.0,    5.6,    8.3,    8.5,   15.1,   15.0,    9.7,    9.7,    9.9,   13.6,   10.7,   11.7,   12.1,  999.0,   15.5,   12.2,   11.6,  999.0,   14.1,   12.2,   10.7,   -5.6,    2.9,  999.0,    0.5,    3.7,   -0.1,    1.1,    0.5,    0.8,    0.6,    0.6,    0.8,  999.0,    1.0,    0.7,    1.2,    0.7,    0.6,    0.6,    0.8,    0.7,    0.5,    0.3,    0.4,    0.7,    1.7,  999.0,    0.6,    0.8,    0.9,    0.6,  999.0,    1.1,    0.9,    1.5
2000/12/24 06:10,  999.0,    3.6,    1.7,    1.3,    7.6,  999.0,  999.0,    8.6,    7.6,    7.7,    9.9,   11.5,   12.5,   11.9,   12.3,   16.3,  999.0,   20.2,   16.5,   15.7,   14.6,   14.3,   12.3,    9.6,    4.7,    6.8,    0.9,    0.4,    2.6,    0.9,    0.9,    0.2,    0.8,    0.8,  999.0,    0.5,    0.8,    0.5,    1.3,  999.0,    0.7,  999.0,    0.5,  999.0,    0.9,    0.5,  999.0,    0.4,    0.3,    0.8,    0.9,    0.3,    0.8,    0.5,    0.1,    0.4,    0.7,    2.4
2000/12/24 06:20,  999.0,    2.4,    1.8,    0.5,    6.9,    7.9,    0.1,    8.8,    8.3,    9.1,   10.5,   11.8,   12.6,   11.6,   10.6,   11.4,   12.0,  999.0,  999.0,  999.0,  999.0,  999.0,  999.0,   -0.6,    4.3,   17.6,  999.0,   12.6,   10.2,    6.9,    4.1,    0.8,  999.0,  -12.1,  -37.0,  999.0,  999.0,  999.0,  -42.1,  999.0,    0.8,  999.0,  -20.5,  -13.7,    1.2,  -20.1,  -42.1,    0.9,    0.7,    0.8,  -20.8,    1.1,    0.5,  -21.0,    0.7,    0.4,   -0.4,  -42.9
2000/12/24 06:30,  999.0,    4.6,   -1.5,    1.4,    4.9,    5.9,    6.1,    7.4,    4.2,   10.1,    4.1,    9.2,    9.6,   11.1,   10.9,   12.0,   12.3,  999.0,  999.0,  999.0,   16.1,  999.0,   12.0,   -2.5,    9.0,    6.8,    4.6,  999.0,    1.7,    0.9,  999.0,    1.2,  999.0,  999.0,  999.0,    0.8,    1.2,    1.0,  999.0,  999.0,    0.6,    0.4,  -42.0,    1.0,  -20.3,    0.8,  -13.7,    0.6,    0.6,  -13.6,  -20.9,    0.4,    0.6,  -13.2,    0.5,  999.0,   -7.1,  999.0
2000/12/24 06:40,  999.0,  999.0,    4.1,    5.3,    9.8,    4.7,    8.4,    8.7,    8.5,    9.8,    9.7,   10.3,   10.1,   11.2,   11.6,   17.0,  999.0,  999.0,  999.0,   20.9,    4.9,  999.0,  999.0,   18.7,   17.8,  999.0,  999.0,    8.6,   14.4,   13.7,  999.0,  999.0,  999.0,  999.0,    1.5,  999.0,  999.0,    1.4,  -38.3,   -0.3,  -39.9,    0.6,  999.0,  -43.0,  -21.6,  -21.3,  999.0,    0.1,  -21.2,  -20.8,   -0.7,  -21.6,  -40.6,   -0.6,  -19.4,  -13.5,   -0.9,  999.0
2000/12/24 06:50,  999.0,    1.8,    0.5,   -5.7,   -1.6,    1.9,    1.0,    5.4,    6.9,    6.1,   10.3,  999.0,  999.0,    7.2,   11.4,   12.3,  999.0,  999.0,  999.0,  999.0,  999.0,  999.0,  999.0,  999.0,   -1.6,  999.0,  999.0,  999.0,  999.0,  999.0,  999.0,  999.0,  999.0,  999.0,  999.0,  999.0,  999.0,  999.0,  999.0,  -41.7,  -40.3,  -41.6,  -40.9,  -41.0,  -42.2,  -41.9,  -41.8,  999.0,  -41.9,  -41.7,  -42.1,  -42.0,  -41.9,  -41.7,  999.0,  -41.8,  -41.7,  -41.3
2000/12/24 07:00,  999.0,    3.7,   -4.8,    0.8,   -1.2,   -0.7,   -0.5,    2.1,    5.8,    6.9,    8.0,    6.4,    6.9,    6.5,    7.3,   12.4,   12.3,    7.4,  999.0,    2.0,    6.7,    6.9,  999.0,  999.0,  999.0,  999.0,  999.0,  999.0,  999.0,  999.0,   -4.9,  999.0,  999.0,  999.0,  999.0,  999.0,  999.0,  999.0,  -36.3,  -39.0,  -40.0,  -40.9,  -40.1,  -42.2,  -42.0,  -41.4,  -37.2,  -26.9,  -41.8,  -43.0,  999.0,  999.0,  -41.9,  -42.4,  -27.6,   -7.4,  -27.9,  -41.7
2000/12/24 07:10,  999.0,   -0.2,   -1.2,    1.3,    1.5,    5.0,    3.4,    4.3,    5.6,    2.9,    8.4,    5.2,    4.1,    4.4,   -0.3,   -3.0,  999.0,  -21.5,  999.0,  999.0,  -26.2,  -27.6,   -8.0,   -9.7,  -11.8,    9.7,  -14.9,  -39.6,  -17.6,  -26.4,  -20.0,  -34.6,  -27.3,  -27.6,  -42.6,  999.0,  -41.7,  -27.7,  -20.6,  -21.1,  -42.6,  -24.5,  -41.8,  -42.2,  -41.4,  999.0,  -42.5,  -42.3,  -42.3,  -41.5,  -41.9,  -42.3,  -41.9,  -41.7,  -42.1,  -41.6,  -41.7,  -41.0
2000/12/24 07:20,  999.0,   -2.0,  999.0,   -3.4,   -0.3,    3.4,    4.1,   -0.1,  999.0,    2.0,   -1.0,    2.9,    9.3,    6.1,  999.0,   -4.1,  999.0,  999.0,  999.0,  999.0,  999.0,  999.0,  999.0,  999.0,  -32.5,  999.0,  -33.4,  -35.0,  999.0,  -36.8,  -37.9,  999.0,  999.0,  -40.4,  -41.2,  -41.7,  999.0,  -42.1,  999.0,  999.0,  999.0,  -41.6,  999.0,  999.0,  999.0,  -41.4,  -40.8,  -41.4,  -41.9,  -41.4,  -41.1,  -41.8,  -41.2,  -41.8,  -41.3,  999.0,  -27.7,  -41.9
2000/12/24 07:30,  999.0,   -3.7,   -2.9,   -1.5,    0.0,  999.0,   -1.2,   -8.2,   -7.6,    1.4,   -2.8,    2.1,   -0.8,  999.0,    5.6,  999.0,  999.0,    5.8,  999.0,  999.0,  999.0,  999.0,  999.0,  999.0,  999.0,  999.0,  999.0,  999.0,  999.0,    6.5,  999.0,    3.6,  999.0,    0.9,    0.6,    1.2,  999.0,    0.7,  999.0,  999.0,  999.0,    1.0,  999.0,  999.0,  999.0,    1.3,  999.0,  999.0,  999.0,  999.0,  999.0,  999.0,  999.0,  999.0,    1.6,  999.0,  999.0,  999.0
2000/12/24 07:40,  999.0,   -0.6,   -0.6,  999.0,  999.0,  999.0,  999.0,    1.3,  999.0,   10.0,    3.5,    1.6,   14.5,   11.8,  -22.6,  999.0,  999.0,  999.0,  999.0,  999.0,  999.0,  999.0,  999.0,  999.0,  999.0,  999.0,  999.0,  999.0,  999.0,   15.5,  999.0,   36.2,   37.1,   40.1,   41.3,   20.3,  999.0,   41.6,   -1.0,   42.3,  999.0,   20.7,  999.0,   42.0,   -0.4,   21.4,   -0.1,    0.0,   41.3,   20.9,   20.6,  999.0,   21.1,   21.2,   -0.5,   20.2,  999.0,   20.5
2000/12/24 07:50,  999.0,    4.1,   -6.4,   -5.5,   -0.2,    6.3,   -3.3,    2.2,   -2.1,  999.0,  999.0,    4.5,    0.8,  999.0,  999.0,  999.0,  999.0,  999.0,    5.0,   11.3,  -28.9,  -31.1,  999.0,  -35.1,  999.0,  999.0,  -39.6,   -8.8,  999.0,  999.0,   -5.7,    0.6,   -2.5,   -1.6,   -1.2,   -6.8,  999.0,    2.9,   -0.6,  -15.5,   -0.6,  999.0,  999.0,   -0.2,   -0.7,   -0.9,   -0.9,   -0.8,   -3.2,   -0.6,  999.0,   -1.3,  -33.2,  -40.3,  -15.5,   -1.5,  -21.2,   -0.9
2000/12/24 08:00,  999.0,  999.0,   -1.4,    2.5,    1.2,   -2.1,    3.5,    5.4,    6.9,    9.7,   11.1,   10.3,   10.2,   13.7,    9.1,  999.0,  999.0,  999.0,  999.0,  999.0,   19.0,   20.3,   21.1,   34.6,   22.2,  999.0,  999.0,  999.0,  999.0,  999.0,   -2.2,  999.0,  999.0,  999.0,   20.2,  999.0,   42.3,   -0.4,   -0.6,   -0.4,   -1.1,   -1.0,  999.0,   -0.1,  999.0,  999.0,   -0.1,  999.0,  999.0,   -0.4,   -0.2,   -1.0,   -0.6,   -0.6,   -1.2,   -0.2,   -0.7,   -0.8
2000/12/24 08:10,  999.0,    1.9,    1.1,    3.9,    3.5,    2.9,    6.4,    8.8,    5.9,    8.5,   11.0,   11.6,  999.0,   13.8,  999.0,  999.0,   13.0,   12.3,  999.0,  999.0,  999.0,  999.0,  999.0,  999.0,  -10.5,  999.0,  999.0,  999.0,  999.0,  999.0,  999.0,  999.0,  999.0,  999.0,  999.0,  999.0,  999.0,    6.9,  999.0,  999.0,    0.6,    0.5,   18.8,  999.0,  999.0,  999.0,    0.1,   -1.2,  999.0,    0.0,  999.0,  999.0,   -0.7,   -0.4,   -0.5,   -0.5,   -0.7,   -0.4
2000/12/24 08:20,  999.0,    1.3,    2.6,    3.9,    6.9,    8.1,    6.8,    8.0,    8.1,    8.7,   11.0,  999.0,   13.4,   11.7,  999.0,  999.0,   11.2,   13.4,   10.6,  999.0,  999.0,  999.0,  999.0,   17.3,    3.5,   20.9,  999.0,  999.0,  999.0,  999.0,   16.8,  999.0,  999.0,  999.0,  999.0,  999.0,  999.0,  999.0,  999.0,  999.0,  999.0,  999.0,  999.0,  999.0,  999.0,  999.0,   -0.8,  999.0,    5.6,    1.8,   -1.2,    3.2,   -0.6,   -0.5,   -0.6,   41.4,   -0.9,   -0.9
2000/12/24 08:30,  999.0,    3.3,    5.3,    6.1,    7.0,    8.3,    7.8,    8.1,    9.1,   10.8,   13.4,   15.5,   12.4,   12.3,  999.0,  999.0,   10.6,   13.1,  999.0,  999.0,   14.3,   15.4,   15.7,   17.3,   17.0,   19.8,   21.8,  999.0,  999.0,  999.0,  999.0,  999.0,  999.0,  999.0,  999.0,  999.0,   14.4,  999.0,  999.0,  999.0,  999.0,  999.0,   -0.5,   -1.1,   -1.6,   -0.5,   -0.6,   -0.7,   -1.1,   -0.9,   -1.4,   -1.0,   -0.9,   -0.8,   -0.3,   -0.7,   -0.8,   -0.6
2000/12/24 08:40,  999.0,    3.6,    4.6,    5.5,    6.4,    6.8,    7.8,    8.7,    9.7,   10.2,   10.0,   10.3,   11.0,  999.0,    9.8,   11.3,  999.0,  999.0,   17.9,   19.1,  999.0,  999.0,  999.0,   20.1,  999.0,  999.0,  999.0,  999.0,  999.0,  999.0,  999.0,  999.0,  999.0,  999.0,  999.0,   -0.5,   -0.6,  999.0,   -1.1,   -0.8,  999.0,   -1.1,   -1.3,  999.0,   -0.6,   -0.7,   -0.7,   -1.4,   -0.9,  999.0,   -1.1,   -0.9,   -0.2,   -0.6,   -0.8,   -0.8,   -0.7,   -1.0
2000/12/24 08:50,  999.0,  999.0,    3.6,    5.1,    7.1,    5.9,    8.3,   11.0,   11.9,  999.0,   12.1,   11.1,   10.5,   11.8,    1.1,  999.0,  999.0,   10.8,  999.0,  999.0,   16.0,   16.8,  999.0,  999.0,   21.1,  999.0,  999.0,  999.0,  999.0,  999.0,  999.0,  999.0,   -0.2,  999.0,   -1.0,   -0.8,   -0.7,   -0.8,   -0.7,   -0.6,   -1.1,   -0.6,   -0.8,   -0.6,   -1.1,   -1.0,   -0.8,   -0.9,   -0.6,   -0.5,   -1.1,   -0.7,   -0.9,   -0.5,   -0.6,   -0.7,   -0.5,    0.0
2000/12/24 09:00,  999.0,    4.7,    5.2,    5.7,    6.7,    6.6,    8.7,    8.8,    6.0,   10.2,   10.0,    9.1,    8.0,    9.1,    7.2,  999.0,  999.0,  999.0,  999.0,  999.0,  999.0,  999.0,  999.0,  999.0,  999.0,  999.0,  999.0,   -1.0,   -2.8,   -1.0,   -1.3,   -0.7,   -0.6,   -0.9,   -1.0,   -0.6,   -1.0,   -0.8,   -0.9,   -1.0,   -1.2,   -1.0,   -0.9,   -1.4,   -0.9,  999.0,   -0.6,   -0.8,   -0.9,   -0.8,   -0.6,   -0.9,   -1.0,   -0.5,   -0.9,   -0.7,   -0.7,   -1.0
2000/12/24 09:10,  999.0,    6.8,    6.7,    9.0,    6.9,    6.0,   10.5,  999.0,   14.2,    9.0,  999.0,  999.0,   10.7,   10.1,   10.4,  999.0,    7.8,  999.0,  999.0,  999.0,  999.0,  999.0,  999.0,  999.0,  999.0,  999.0,  999.0,   -1.3,   -1.0,   -0.6,  -20.5,  -16.8,  999.0,   -1.5,  -29.1,  -20.0,  -27.9,  999.0,  -17.1,  -10.7,   -2.8,   -1.7,  999.0,  -18.2,  -22.9,   -5.3,   -0.7,   -0.3,   -0.2,   -0.5,   -0.1,   -0.4,   -0.6,   -0.7,  999.0,  -16.0,  -10.5,  -40.6
2000/12/24 09:20,  999.0,    5.2,    6.5,    8.1,    7.8,    9.7,    9.9,   10.3,  999.0,   14.3,  999.0,   12.4,   10.0,  999.0,    8.7,   12.4,  999.0,  999.0,  999.0,  999.0,  999.0,  999.0,  999.0,  999.0,  999.0,  999.0,  999.0,   -1.2,  999.0,   -0.6,   -1.0,   -0.3,   -0.4,   -0.4,   -0.7,  999.0,   -0.8,   -1.0,   -0.5,   -0.7,   -0.9,   -0.7,   -0.9,  999.0,   -1.1,   11.2,    7.3,   -0.7,  999.0,   -0.6,   -1.0,   -0.7,   -0.6,   -1.6,   -0.9,   -0.2,   -0.6,   -0.9
2000/12/24 09:30,  999.0,    5.0,    4.7,    5.6,    6.6,    7.4,    7.2,    7.6,    7.2,    9.5,   11.8,   13.7,  999.0,  999.0,  999.0,   11.6,  999.0,  999.0,  999.0,  999.0,  999.0,  999.0,  999.0,  999.0,  999.0,  999.0,  999.0,  999.0,   -0.5,  999.0,  999.0,   -0.3,   -0.2,  999.0,  999.0,  999.0,  999.0,  999.0,  999.0,  999.0,   -0.3,   -0.6,  999.0,   -1.0,   -0.3,   -1.4,   -0.9,   -0.1,   -0.5,   -0.9,   -0.7,   -0.5,   -0.6,   -0.8,   -0.7,   -0.8,   -0.9,   -0.6
2000/12/24 09:40,  999.0,    2.2,    4.4,    6.1,    5.5,    6.7,    6.3,    6.9,    6.4,    7.7,   10.9,   12.0,   14.4,  999.0,  999.0,  999.0,  999.0,  999.0,  999.0,  999.0,  999.0,  999.0,  999.0,  999.0,  999.0,  999.0,   -4.4,  999.0,   -0.8,   -0.8,  999.0,  999.0,   -0.3,   -0.7,   -0.4,  999.0,  999.0,   -1.6,  999.0,   -1.3,   -1.0,  999.0,   -0.4,   -0.2,  999.0,  999.0,   -0.4,   -0.6,   -0.5,   -0.8,   -0.9,   -0.6,   -0.7,   -0.4,   -0.6,   -0.5,   -0.8,   -0.8
2000/12/24 09:50,  999.0,    7.7,    6.0,    7.0,    7.9,    8.5,    8.1,    7.5,    7.3,    8.6,    9.9,  999.0,  999.0,  999.0,  999.0,  999.0,  999.0,  999.0,  999.0,  999.0,  999.0,  999.0,  999.0,  -10.2,  999.0,   -7.6,   -3.5,   -2.2,   -1.3,   -1.1,   -0.9,   -0.7,   -0.4,   -0.8,   -0.9,   -0.8,   -0.6,   -1.1,   -0.8,   -0.5,   -0.8,   -0.5,  999.0,   -0.6,   -0.7,   -1.0,   -0.6,   -0.6,   -0.4,   -0.0,   -0.7,   -0.5,    0.0,   -1.0,   -0.7,   -0.8,   -0.8,   -0.9
2000/12/24 10:00,  999.0,   10.2,    6.4,    7.9,    5.8,    5.1,    5.6,    6.2,    7.3,    6.9,    0.9,    0.5,  999.0,  999.0,   21.3,  999.0,  999.0,  999.0,  999.0,  999.0,   32.3,  999.0,   36.6,  999.0,  999.0,   -5.2,   -2.9,   -1.3,   -1.0,   13.2,   20.4,   -0.5,   20.9,   20.5,   -1.3,   20.4,   -1.3,   20.7,   -1.0,   -0.7,   -0.3,   -0.6,   -0.9,   -1.1,   -0.7,   12.3,   11.5,  999.0,   -0.8,   -0.5,   -0.7,  999.0,   -0.8,   13.7,  999.0,   -0.0,   -0.8,   13.3
2000/12/24 10:10,  999.0,    8.1,    7.1,    7.1,    6.5,    7.4,    7.1,    7.3,    5.6,    7.9,    7.1,   11.4,   -0.2,  999.0,  999.0,   25.0,  999.0,  999.0,  999.0,  999.0,  999.0,  999.0,  999.0,  999.0,  999.0,  999.0,  999.0,  999.0,   -0.6,   -0.6,   42.4,  999.0,   41.7,   10.1,  999.0,   -0.3,  999.0,   -0.8,   -0.9,  999.0,   -0.9,   -0.9,   -0.4,   -1.0,   15.7,  999.0,   -0.8,   -0.5,   -0.1,   -0.3,   -0.5,   -0.6,   -0.5,   -0.6,   -1.0,   -0.5,   -0.8,   -0.9
2000/12/24 10:20,  999.0,    1.0,    0.4,    2.2,    5.8,    4.9,    2.8,    5.6,    5.7,    6.3,    2.5,    0.0,  999.0,  999.0,  999.0,  999.0,  999.0,  999.0,  999.0,  999.0,  999.0,  999.0,  999.0,  999.0,  999.0,  999.0,  999.0,  999.0,  999.0,  999.0,   -0.9,   -0.8,   -0.6,   -0.6,   -0.5,   -0.7,   -0.9,   -0.9,   -0.9,   -0.4,   -0.5,   -1.2,   -0.8,   -1.0,   -1.0,   -0.6,   -0.6,  999.0,  999.0,   -1.1,   -0.5,   -0.6,   -0.5,   -1.1,   -0.8,   -1.0,   -0.3,   -0.4
2000/12/24 10:30,  999.0,    2.2,    2.4,    3.6,    5.9,    5.4,    4.2,    4.3,    4.8,    5.9,    7.3,   -0.4,  999.0,  999.0,  999.0,  999.0,  999.0,  999.0,  999.0,  999.0,  999.0,  999.0,  999.0,  999.0,  999.0,  999.0,  999.0,   -1.3,   -1.4,  999.0,   -0.3,   -1.4,   -0.8,   -0.6,   -0.4,   -0.9,   -0.7,   -0.7,   -0.9,   -0.3,   -1.2,   -1.1,   -1.1,   -0.8,   -1.0,   -0.5,   -0.8,   -1.0,   -0.8,   -0.9,   -0.2,   -0.6,   -0.4,   -0.3,   -1.1,   -1.1,   -1.2,   -0.8
2000/12/24 10:40,  999.0,    2.1,    3.7,    3.7,    4.1,    3.7,    3.1,    3.5,    4.2,    5.3,    6.0,    7.0,    7.6,    9.0,  999.0,  999.0,  999.0,  999.0,   23.6,  999.0,  999.0,   28.2,   28.9,   30.6,  999.0,  999.0,  999.0,  999.0,  999.0,   18.1,   -1.7,  999.0,   -1.1,   -1.0,   -1.1,   -0.7,   -1.4,   -1.1,   -1.0,   -0.3,   -0.2,   -0.8,   -0.7,   -0.5,  999.0,    8.6,   12.2,    7.7,   -0.7,   -0.7,   -0.9,   -0.5,   -0.6,   -0.6,  999.0,   -0.4,   -0.8,    7.6
2000/12/24 10:50,  999.0,    2.2,    2.2,    3.7,    4.5,    4.7,    3.6,    5.3,    6.4,    5.8,    6.1,    5.2,    6.3,  999.0,  999.0,  999.0,  -19.5,  999.0,  999.0,  999.0,  999.0,  -11.4,  -10.6,   -9.0,   -8.0,   -6.6,   -4.3,   -2.2,   -1.6,  999.0,   -0.6,   -1.1,   -1.2,   -0.8,  999.0,   -0.7,   -0.7,    0.2,   -0.4,   -0.5,   -0.7,   -0.9,   -0.5,   -0.7,   -1.2,   -0.6,    0.2,   -0.7,   -0.6,   -0.6,   -1.0,   -0.8,  999.0,   -1.1,   -0.7,   -0.6,   -0.7,   -0.8
2000/12/24 11:00,  999.0,    3.9,    1.2,    2.6,    3.2,    3.1,    3.9,    4.4,    5.3,    6.0,    7.2,    4.6,    5.8,    7.9,    9.3,    5.9,    5.8,    2.0,   -0.5,   10.9,   -5.8,   13.0,   15.6,   11.6,   14.1,   17.1,   20.7,   17.3,   42.4,   30.9,   40.8,   24.5,   32.9,   38.7,   41.5,   41.4,   41.8,  999.0,   29.4,  999.0,   36.0,   36.6,   23.2,   31.1,   37.3,   27.6,   41.0,   21.2,   28.7,   12.8,   10.7,   12.7,    0.9,   22.8,   35.5,   41.6,   31.1,   31.7
2000/12/24 11:10,  999.0,    4.4,    2.3,    4.9,    6.0,    3.1,    5.8,    6.7,    7.0,    6.9,    6.3,    6.4,    7.6,    7.6,    7.0,    7.5,    8.4,   10.1,   16.1,   14.1,   15.1,   16.0,   20.5,   21.0,   21.5,   22.7,   21.7,   42.8,  999.0,   42.1,   40.0,   37.7,   42.0,   42.3,   41.5,   41.0,   41.4,   41.7,   39.5,   42.0,   42.1,   41.6,   42.1,   42.1,  999.0,   41.7,   42.5,   41.9,   41.7,   41.8,   41.8,  999.0,   42.3,   42.3,   41.8,   41.6,   41.9,   42.3
2000/12/24 11:20,  999.0,    8.9,    9.3,    8.4,    8.1,    5.9,    6.7,    6.6,    6.4,    6.5,    6.6,    5.6,    6.5,    7.0,    9.9,   10.2,   13.3,  999.0,   16.8,   19.2,   17.6,   21.9,   21.7,   25.3,   26.6,   25.4,   26.7,   26.5,   27.4,   27.5,   35.8,   41.3,   41.8,   41.9,   42.0,   36.1,   42.6,   41.9,   41.8,   41.3,   42.0,   34.6,   34.6,   31.0,   36.0,   41.7,   42.3,   41.6,   42.1,   42.1,   41.9,   42.2,  999.0,   41.5,   42.1,   38.4,   41.6,   41.8
2000/12/24 11:30,  999.0,    8.5,    8.0,    9.0,    9.6,    9.7,    9.1,    7.1,   10.9,   12.9,   13.2,   13.0,   13.3,   12.9,   14.9,   15.8,   17.3,   17.4,   20.5,   17.5,   18.4,   17.8,   17.5,   20.4,   21.4,   25.2,   25.3,   25.9,   27.1,   24.7,   16.1,   16.3,   30.0,   20.0,   40.5,   37.1,   42.1,   41.8,  999.0,   41.4,   10.0,   24.1,   33.5,   25.8,   16.9,   42.1,   41.7,  999.0,   40.9,   -0.6,  999.0,   20.8,   20.7,   20.9,  999.0,   -1.5,   -0.5,   20.4
2000/12/24 11:40,  999.0,   13.9,   14.3,   14.6,   15.0,   12.9,   14.5,   15.7,   15.0,   12.5,   12.3,   11.3,   10.0,    9.4,   10.4,   11.4,   10.7,    9.6,    9.6,   10.5,   11.1,   11.4,   10.5,    9.0,    9.0,    8.3,    9.3,    7.9,    7.3,    6.8,    7.8,    7.0,    8.8,   10.8,   12.6,    5.9,   11.8,    5.5,    7.4,    4.9,   12.8,    8.4,   12.0,   10.9,   11.0,    8.4,    5.2,    6.8,   11.5,   13.5,   12.8,  999.0,  999.0,  999.0,  999.0,  999.0,  999.0,  999.0
2000/12/24 11:50,  999.0,   12.5,   12.6,   12.6,   13.1,   13.1,   14.5,   14.1,   13.6,   11.1,   10.9,   11.5,   11.6,   10.1,   10.7,   11.7,   11.2,    9.8,    8.7,    8.4,    7.8,    5.7,    4.3,    4.5,    5.7,    5.6,    7.9,    8.5,    9.5,    6.6,    3.8,   -0.4,   -1.8,   -3.0,   -1.9,    0.4,    3.2,    2.4,    3.5,    4.2,    6.3,    6.2,    9.7,    8.7,    9.4,   10.5,   13.3,   17.8,   19.1,   17.9,   11.6,    8.1,  999.0,    9.5,  999.0,  999.0,  999.0,  999.0
2000/12/24 12:00,  999.0,   11.4,   12.6,   10.6,   11.2,   12.1,   13.1,   13.0,   13.1,   12.5,   13.2,   12.9,   12.7,   12.5,   11.8,   10.1,    9.4,    9.2,    8.4,    8.8,    8.9,    9.4,    9.8,    9.5,    9.1,    8.4,    9.2,    9.6,   10.6,   11.9,    9.6,   11.5,   12.0,   11.0,   11.3,    8.6,    6.8,    7.4,    4.0,  999.0,  999.0,  999.0,  999.0,  999.0,  999.0,  999.0,  999.0,  999.0,  999.0,  999.0,  999.0,  999.0,  999.0,  999.0,  999.0,  999.0,  999.0,  999.0
2000/12/24 12:10,  999.0,   11.0,   10.2,   10.6,   10.7,   10.0,   10.1,   10.7,   11.6,   12.7,   14.3,   13.7,   14.4,   14.6,   13.1,   10.9,   12.5,   12.6,   12.5,   11.8,   10.3,   11.0,   11.4,   11.6,   11.9,   10.4,   11.0,   10.7,    9.6,    9.8,    8.0,    9.0,    6.9,    7.1,    5.7,    2.6,    4.2,   -0.4,    0.1,   -2.0,   -4.0,   -7.2,   -6.5,   -2.1,   -0.3,    0.6,   -0.7,    0.9,    2.6,    4.3,  999.0,  999.0,  999.0,    0.4,   -0.3,  999.0,   -0.0,  999.0
2000/12/24 12:20,  999.0,   11.7,   11.0,   10.3,    9.5,    9.4,    6.8,    8.1,    9.2,   10.6,   10.8,   10.3,    8.9,    8.5,    9.5,   11.4,   12.3,   13.1,   13.9,   14.9,   15.7,   16.1,   16.3,   15.0,   14.6,   14.5,   12.9,    7.1,    4.8,    3.1,    4.3,    3.4,    3.1,    3.1,    3.3,    3.4,    3.2,    3.0,    2.9,    2.7,    2.8,    2.7,    2.1,    1.7,    1.9,    3.7,    4.9,    3.5,    3.1,    3.1,    3.7,    4.5,    6.0,    5.3,  999.0,  999.0,  999.0,  999.0
2000/12/24 12:30,  999.0,    9.7,   10.7,   10.9,   10.4,   10.0,    9.8,    9.4,   10.7,   11.4,   11.3,   11.3,   12.2,   12.2,   11.3,   10.9,   12.6,   14.1,   14.9,   14.7,   13.8,   12.9,   13.7,   12.4,   10.1,    9.4,    7.9,    7.5,    7.2,    9.4,   11.0,   12.8,   12.0,    8.9,    6.3,    5.0,    4.9,    5.1,    4.7,    3.8,    4.0,    1.4,    0.9,    0.1,    1.6,    2.7,    2.7,    2.4,   -0.9,   -3.0,   -7.5,   -9.1,   -4.8,   -4.1,   -4.0,   -3.0,   -2.5,    8.3
2000/12/24 12:40,  999.0,    7.3,    6.0,    8.9,    8.7,    8.0,    8.5,    7.3,    7.2,    8.1,   10.3,   10.3,   11.3,   11.4,   11.1,   11.1,   11.3,   12.0,   11.9,   12.4,   12.6,   11.6,   12.4,   12.0,   13.3,   13.3,   13.2,   12.4,   12.0,   12.1,   11.6,   10.9,   10.5,    9.1,    7.6,    6.9,    6.9,    7.3,    7.3,    6.5,    6.3,    4.6,    3.6,    2.9,    3.3,    3.2,    1.8,    1.1,    0.5,    0.2,    0.1,   -0.4,    0.1,   -0.1,   -0.3,    0.2,    0.6,    0.5
2000/12/24 12:50,   16.4,   13.5,    8.5,   10.9,   10.3,    9.7,    3.7,    7.4,    7.6,    8.0,    9.8,    9.4,   11.2,   11.5,   10.2,   12.4,   14.3,   14.8,   14.6,   13.6,   12.7,   12.0,   11.4,   11.2,   13.0,   14.0,   14.2,   14.2,   11.9,   11.0,   10.8,   10.7,    7.9,    1.5,    2.9,    1.9,    0.5,   -0.0,    0.0,    1.2,    2.6,    3.4,    3.2,    1.8,    1.2,   -0.1,    0.1,    0.2,    0.1,   -0.2,   -0.7,   -0.7,   -1.7,   -2.8,   -3.1,   -3.1,   -2.9,   -2.7
2000/12/24 13:00,  999.0,    7.6,    9.9,   10.3,    8.9,    7.1,    7.1,    8.3,    9.3,    9.5,    9.8,   10.3,   10.0,   10.3,   11.1,   12.4,   13.6,   13.2,   13.2,   13.5,   13.0,   13.5,   12.9,   13.3,   14.4,   16.3,   14.0,   13.3,   11.6,    9.8,   10.3,   10.8,    8.1,    7.2,    6.3,    7.4,    4.1,    4.3,    3.8,    2.3,    1.3,    2.7,    4.8,    4.1,    3.0,    2.0,    2.0,    2.0,    1.1,    0.9,    0.7,    0.4,   -0.3,   -1.2,   -1.8,   -2.1,   -2.3,   -1.7
2000/12/24 13:10,  999.0,    7.1,    9.5,    9.3,    6.8,    6.1,    7.2,    8.0,    8.1,    9.0,    9.9,    9.7,    8.5,    9.3,   10.8,   13.0,   15.2,   16.2,   15.2,   14.3,   14.0,   14.0,   12.6,   11.5,    9.8,    9.9,    9.6,    9.2,    8.4,    7.3,    6.3,    5.3,    4.8,    3.7,    2.6,    1.9,    1.3,    0.6,    1.1,    1.4,    2.3,    4.0,    5.1,    4.8,    4.3,    4.1,    3.4,    3.2,    2.7,    2.5,    2.3,    1.5,    1.4,    1.1,    0.9,    0.7,    0.2,   -0.0
2000/12/24 13:20,  999.0,    7.4,    9.0,    8.2,    6.0,    6.1,    7.9,    7.8,    7.2,    7.7,    9.4,   10.3,   10.3,   11.3,   13.5,   16.2,   17.5,   16.4,   14.6,   14.2,   13.9,   13.5,   13.8,   12.2,   11.5,   10.9,   12.3,   10.9,   11.9,   12.5,    9.6,    7.4,    8.1,    8.0,    7.3,    6.2,    2.4,    1.4,    3.2,    3.5,    6.2,    5.9,    5.7,    4.5,    5.0,    5.0,    2.0,    0.8,    0.2,    0.1,    0.7,    0.8,    0.9,    1.1,    1.0,    1.6,    1.4,    1.1
2000/12/24 13:30,  999.0,    8.0,    9.0,    8.3,    6.5,    6.6,    7.9,    8.5,    8.2,    9.1,   10.3,   12.0,   13.2,   14.1,   14.8,   14.8,   12.5,   12.2,   10.5,   10.9,   10.8,   10.7,   10.8,   11.1,   11.2,   11.7,   12.1,   13.4,   14.2,   14.4,   14.8,   15.0,   14.3,   14.0,   12.9,   12.4,   11.7,   11.5,   10.2,    5.4,    4.3,    5.5,    5.5,    4.9,    4.0,    4.0,    3.8,    3.2,    3.0,    2.4,    2.3,    2.4,    1.9,    1.0,    1.6,    1.3,    1.5,    1.3
2000/12/24 13:40,  999.0,    6.8,    8.0,    7.1,    5.6,    6.1,    6.8,    7.4,    7.8,    8.9,   11.4,   13.3,   14.4,   14.5,   14.6,   14.3,   12.3,    9.8,   10.1,   11.2,   11.4,   11.4,   10.6,   11.5,   10.6,   10.9,   10.8,   11.4,    9.9,    7.3,    7.7,    8.1,    8.1,    6.3,    5.9,    5.8,    6.5,    6.3,    5.2,    6.8,    9.4,    8.1,    6.6,    5.3,    4.5,    3.9,    2.3,    0.2,   -0.9,   -0.8,   -0.2,    0.6,    0.2,    0.2,   -0.1,   -0.3,   -0.2,   -0.2
2000/12/24 13:50,  999.0,    6.8,    7.8,    7.8,    7.2,    6.4,    6.2,    6.8,    7.9,    9.9,   11.6,   12.5,   13.0,   12.9,   13.0,   13.0,   12.3,    9.8,    8.0,    7.4,    7.6,    7.6,    7.3,    7.5,    8.0,    8.3,    8.7,    9.2,    8.7,    8.2,    8.1,    7.9,    7.6,    6.5,    5.5,    5.3,    4.7,    4.2,    4.5,    5.5,    7.1,  999.0,    9.8,    7.8,    6.8,    5.9,    5.1,    3.8,    2.7,    1.7,    1.1,    0.6,    1.0,    1.0,    1.0,    0.9,   -0.2,   -0.7
2000/12/24 14:00,  999.0,    6.7,    8.2,    8.0,    7.4,    6.1,    6.1,    6.7,    8.7,   11.0,   12.6,   13.4,   13.1,   12.7,   12.6,   12.0,   12.6,   13.3,   12.5,   11.1,    9.8,    9.3,    8.2,    7.4,    7.3,    7.4,    7.5,    7.7,    7.7,    7.3,    6.4,    6.5,    5.9,    4.8,    4.2,    3.6,    4.2,    4.2,    4.3,    3.7,    3.9,    4.3,    3.0,    2.4,    2.4,    2.2,    1.9,    1.2,    0.9,    1.0,    0.1,    0.7,    0.9,    1.1,    1.1,    0.5,   -0.8,   -0.5
2000/12/24 14:10,  999.0,    6.6,    8.2,    8.1,    6.8,    5.8,    7.0,    8.5,    9.9,   11.9,   12.8,   12.3,   11.1,   10.8,   11.4,   12.6,   13.8,   14.8,   14.8,   13.4,   11.9,   10.7,    9.8,    9.2,    9.0,    8.8,    9.3,   10.7,   11.3,   10.6,   10.2,    9.0,    7.3,    7.3,    7.4,    7.6,    2.3,   -0.3,    3.8,    2.7,    5.0,    6.0,    3.5,    2.8,    3.8,    4.9,    5.2,    4.4,    5.4,    6.4,    6.1,    8.6,   12.9,  999.0,    9.7,    6.9,    1.3,   -1.1
2000/12/24 14:20,  999.0,    7.8,    9.3,    9.5,    8.5,    7.5,    8.0,    8.8,    9.9,   11.2,   12.4,   13.2,   13.4,   12.3,   11.6,   11.9,   13.1,   14.3,   13.9,   13.3,   12.1,   11.4,    9.6,    8.4,    7.4,    7.5,    7.4,    7.1,    7.4,    7.2,    5.2,    3.8,    3.3,    2.4,    1.5,    0.7,    0.4,    0.2,    1.0,    2.7,    5.6,    2.8,    3.8,    3.5,    4.1,    4.5,    4.1,    3.6,    2.6,    2.2,    2.4,    2.1,    1.5,    1.1,    1.1,    0.3,   -0.1,   -1.0
2000/12/24 14:30,  999.0,    7.3,    8.8,    8.9,    8.4,    7.7,    7.7,    9.3,   11.1,   11.5,   11.9,   12.0,   12.1,   12.6,   11.8,   12.3,   13.1,   13.2,   12.6,   11.6,   10.8,   10.7,   10.3,   10.1,    9.7,   10.5,    9.6,    8.8,    9.0,    8.2,    7.0,    5.2,    4.3,    3.4,    2.5,    2.1,    1.8,    1.8,    2.6,    4.1,    8.0,    6.0,    2.9,    1.9,    1.1,    0.7,    0.4,   -0.3,   -0.7,   -0.6,   -0.4,   -0.8,   -0.3,   -0.2,   -0.2,   -0.3,   -0.3,   -0.8
2000/12/24 14:40,  999.0,    8.0,    9.3,    8.9,    9.1,    8.4,    8.6,    9.5,   11.5,   12.3,   11.6,   11.9,   12.4,   12.3,   11.4,    8.9,    8.7,    9.8,    9.3,    8.6,    9.1,    8.6,    8.2,    9.0,   10.4,   11.3,   10.8,    9.7,    9.7,   10.5,    9.3,    7.4,    5.9,    4.3,    3.4,    2.5,    1.6,    0.6,    0.9,    2.5,    5.0,    4.4,    2.0,    1.0,    0.4,    0.0,   -0.1,   -0.3,   -0.2,   -0.2,   -0.7,   -0.6,   -0.3,   -0.1,    0.1,    0.3,    0.2,    0.2
2000/12/24 14:50,  999.0,    8.6,    9.5,   10.3,   10.6,    9.8,    9.6,   10.6,   11.5,   11.4,   10.7,   11.4,   12.1,   11.5,   10.4,   10.4,   10.3,   11.2,   10.9,   10.5,    9.7,    8.3,    7.4,    7.4,    8.3,   10.0,   10.7,   10.2,   10.5,    9.5,    7.8,    6.8,    6.5,    5.5,    4.3,    3.3,    2.5,    2.1,    1.4,    1.1,    1.2,    1.5,    1.1,    0.8,    0.1,    0.1,   -0.2,   -1.1,   -1.6,   -1.9,   -2.2,   -2.8,   -2.5,   -1.6,   -0.7,   -0.4,    0.4,    0.8
2000/12/24 15:00,  999.0,    9.2,   10.5,   10.4,   10.3,    9.5,    9.5,    9.7,    9.1,    8.8,    8.6,    9.5,   10.6,   10.8,    9.6,    9.0,    8.1,    7.7,    8.6,    9.4,    9.7,    8.6,    7.9,    7.7,    9.2,   10.5,   11.5,   12.1,   10.8,    9.4,    8.3,    7.9,    7.8,    6.9,    6.3,    5.2,    4.2,    3.4,    3.9,    4.6,    5.1,    4.5,    4.7,    3.3,    1.8,    0.5,    0.0,   -0.9,   -1.3,   -1.0,   -0.7,   -0.7,   -0.8,   -1.1,   -1.4,   -0.6,   -0.3,   -0.1
2000/12/24 15:10,  999.0,    8.4,    8.8,    8.8,    8.4,    8.1,    8.0,    8.3,    8.8,    9.3,    9.6,    9.8,   10.3,   11.2,   10.7,   10.0,    9.7,    9.6,    9.3,    9.9,   10.5,   11.2,   11.4,   11.5,   12.0,   13.2,   14.8,   15.6,   14.3,   11.6,    9.2,    8.1,    7.5,    6.4,    4.3,    3.1,    2.6,    1.9,    4.4,    6.8,    6.8,    5.4,    4.0,    2.4,    2.3,    2.1,    1.8,    1.3,    0.7,    0.5,    0.4,    0.3,    0.4,    0.2,    0.4,    0.3,   -0.2,    0.1
2000/12/24 15:20,  999.0,    8.0,    7.8,    7.5,    7.1,    7.1,    7.5,    8.1,    9.1,   10.2,   11.0,   11.1,   11.5,   11.9,   11.4,   10.3,    9.7,    9.3,    9.3,    9.4,    9.8,   10.6,   11.4,   11.5,   10.9,   11.1,   11.3,   11.6,   11.6,    9.9,    8.2,    7.0,    7.2,    7.1,    6.3,    4.5,    2.1,    1.1,    2.1,    3.6,    4.4,    4.1,    2.7,    1.2,    0.5,    0.4,    0.1,   -0.2,   -0.5,   -0.6,   -0.9,   -0.8,   -0.5,   -0.2,   -0.2,    0.1,    0.2,   -0.2
2000/12/24 15:30,  999.0,    6.8,    7.6,    7.5,    8.0,    8.4,    8.3,    8.8,   10.2,   11.3,   11.4,   10.5,   11.1,   12.1,   12.1,   10.6,    9.0,    8.2,    8.5,    8.7,    8.8,    9.6,   10.9,   11.3,   11.4,   11.2,   11.2,   12.4,   12.3,   11.2,   11.3,    9.4,    9.1,    9.1,    8.4,    6.5,    4.7,    3.4,    3.9,    4.2,    6.3,    5.2,    2.8,    0.1,   -1.2,   -1.6,   -2.2,   -2.1,   -1.9,   -1.4,   -1.3,   -1.4,   -1.7,   -1.8,   -1.4,   -1.8,   -1.5,   -1.2
2000/12/24 15:40,  999.0,    8.3,    8.9,    8.5,    8.5,    8.7,    9.2,   10.3,   11.3,   12.4,   12.8,   12.6,   12.6,   13.0,   13.0,   12.5,   11.5,   10.2,    9.2,    8.9,    8.6,    8.6,    9.0,   10.3,   10.7,   12.6,    8.7,    9.9,   11.5,    8.5,    5.3,    4.4,    3.1,    1.6,   -0.4,   -1.3,   -1.9,   -2.4,   -2.7,   -1.5,   -0.7,   -0.5,    1.8,    1.2,    0.0,   -0.6,   -1.2,   -1.9,   -1.8,   -1.6,   -0.8,   -0.5,   -0.4,   -0.6,   -0.8,   -1.2,   -1.7,   -1.3
2000/12/24 15:50,  999.0,    9.3,    9.2,    9.6,    9.6,    9.3,    9.6,   10.8,   12.4,   13.3,   13.3,   12.6,   11.9,   11.5,   11.3,   11.4,    9.6,    8.2,    8.1,    7.7,    8.2,    7.6,    9.1,    8.8,    9.9,    9.7,   11.3,    9.2,    8.7,    6.4,   -0.4,    0.6,   -1.1,  999.0,   -0.9,   -2.5,    0.2,   -2.8,   -1.3,   -1.9,   -2.8,   -3.1,    4.3,    3.1,    1.8,    0.3,   -0.0,    0.2,   -1.2,   -2.0,   -2.3,   -1.8,   -1.8,   -0.9,    0.0,    0.3,    1.0,    2.0
2000/12/24 16:00,  999.0,    7.6,    8.2,   10.5,   10.7,   12.5,   10.0,   11.1,   12.7,   14.4,   13.0,   14.4,   12.5,   12.1,   11.1,   10.8,   10.2,    9.0,    8.3,    7.4,    4.8,    5.8,    5.2,    3.2,    6.5,    7.1,    9.7,    6.6,    4.3,  999.0,  999.0,   -0.8,   -0.8,   -0.7,   -0.9,   -0.7,   -0.5,   -0.8,   -0.9,   -0.5,   -0.5,   -0.6,   -0.8,   -0.5,  999.0,   -0.7,  999.0,  999.0,   12.8,   15.8,   -5.5,   14.5,   -8.9,   -8.7,   -3.3,   -6.2,    5.0,    6.5
2000/12/24 16:10,  999.0,  999.0,   27.8,   10.7,   22.3,    6.0,   10.6,   10.1,   13.6,   20.9,  999.0,  999.0,   15.4,   12.0,    3.1,   10.2,    5.2,    9.5,    7.6,    6.1,    4.6,    4.4,    4.4,    2.5,    4.7,    9.5,    4.5,  999.0,  999.0,   -1.2,  999.0,   -0.8,   -0.4,   -0.2,   -1.2,  999.0,   -1.0,   -0.8,   -0.8,   -1.0,  999.0,   -1.4,   -0.6,   -0.3,   -0.6,   -0.4,   -0.2,   -0.2,   -0.5,   -0.8,   -0.5,   -1.0,  999.0,   -0.4,  999.0,   -0.9,   -0.4,   -0.8
2000/12/24 16:20,  999.0,  999.0,   21.0,  999.0,  999.0,   27.2,   20.4,   20.6,   20.6,  999.0,   19.9,  999.0,  999.0,  999.0,  999.0,  999.0,  999.0,  999.0,  999.0,  999.0,  999.0,  999.0,  999.0,  999.0,  999.0,  999.0,  999.0,   41.1,   41.1,   41.0,   -1.2,   12.5,   -1.2,  999.0,   -1.2,  999.0,   -0.5,   -0.3,  999.0,   -1.0,   -1.2,  999.0,    9.8,   20.0,   -0.9,   20.7,    9.9,   -1.1,   -0.8,   -0.6,  999.0,    9.8,   41.8,  999.0,  999.0,   20.8,    9.6,   -1.7
2000/12/24 16:30,   20.9,   12.9,   12.1,   19.5,   13.2,   14.4,   14.8,   13.5,   20.2,  999.0,  999.0,  999.0,   21.3,  999.0,  999.0,  999.0,  999.0,  999.0,  999.0,  999.0,  999.0,  999.0,  999.0,  999.0,  999.0,  999.0,  999.0,   -1.4,   -1.4,   -1.1,  999.0,   -0.7,  999.0,  999.0,   -1.2,   -0.2,   -0.6,   -1.1,   -0.6,  999.0,   -0.2,   -0.6,   -1.0,   -0.9,   -0.9,   -0.9,   -0.9,  999.0,   -0.9,  999.0,   -0.7,   -0.5,   -0.5,  999.0,   -0.5,   -0.1,   -0.5,  999.0
2000/12/24 16:40,  999.0,   11.0,   10.4,   11.9,   15.6,   10.9,  999.0,   21.5,   19.2,  999.0,  999.0,   21.4,   20.7,  999.0,   20.8,   21.4,   22.5,   24.0,  999.0,   26.7,  999.0,  999.0,   29.6,   30.7,   31.9,  999.0,  999.0,   36.1,   37.6,   38.3,   40.1,   40.9,   41.9,   42.1,   42.1,  999.0,  999.0,   42.5,  999.0,  999.0,   42.4,  999.0,  999.0,   41.3,   42.3,   41.7,   41.8,   41.7,  999.0,   42.1,   41.9,   42.5,   42.0,   41.6,   41.0,  999.0,  999.0,   41.1
2000/12/24 16:50,  999.0,   11.2,    9.3,   12.4,   11.9,   11.8,   11.9,  999.0,   21.4,   16.8,   20.9,  999.0,   21.4,  999.0,   21.9,   22.1,  999.0,   26.0,   27.0,  999.0,   31.9,    7.7,   33.4,   19.3,  999.0,   22.3,   36.9,   24.0,   39.6,   17.7,  999.0,   41.2,   27.8,   42.2,   42.4,   41.3,   27.9,  999.0,   42.0,   20.6,   42.1,   42.5,   41.7,   41.9,   41.9,   41.2,  999.0,   27.9,  999.0,   20.9,   41.6,   20.3,   42.1,  999.0,   -1.1,   41.2,   27.5,   42.3
2000/12/24 17:00,  999.0,   10.1,    3.1,  999.0,   15.9,  999.0,   21.6,  999.0,   21.2,  999.0,   21.5,   19.9,  999.0,   22.5,   23.3,   23.9,   25.1,   28.9,  999.0,   29.1,   31.5,   32.9,   33.1,  999.0,   35.7,   37.4,  999.0,   41.6,  999.0,  999.0,   41.8,   41.6,   40.8,   41.1,   40.5,   41.0,   41.4,   41.9,   42.1,  999.0,   42.2,   42.2,   41.9,   41.7,   41.4,   41.0,  999.0,   41.6,   41.6,   42.2,   41.5,   41.8,   40.5,   42.3,   42.3,   42.3,   41.1,   41.3
2000/12/24 17:10,  999.0,   12.5,  999.0,   11.9,   11.9,  999.0,   10.8,   21.4,   21.3,   21.0,   21.2,   20.8,  999.0,  999.0,   21.2,   21.6,   22.3,   24.1,   24.3,   28.6,   27.8,  999.0,   33.9,  999.0,   35.3,   37.4,   37.8,   38.9,   41.2,   40.8,   41.5,   42.1,   41.7,   41.8,   41.8,   41.9,   41.8,   41.7,   42.1,   42.0,   41.7,   42.0,   41.9,  999.0,   42.1,   42.0,   42.1,   41.4,   41.8,  999.0,   41.9,   41.6,   41.6,   42.3,   42.7,   31.1,   -0.8,  999.0
2000/12/24 17:20,  999.0,  999.0,   21.1,   21.3,  999.0,   21.9,   21.3,   21.3,   21.2,   20.9,   20.8,   21.1,  999.0,   21.5,   21.9,   22.1,   23.3,   25.7,   28.9,   28.0,   30.5,   32.4,   33.7,   36.0,   37.1,   38.8,   40.2,  999.0,   40.3,   42.3,   42.7,   42.6,  999.0,   42.1,   42.3,   42.1,   42.9,   42.4,   42.2,   41.5,   41.6,  999.0,   41.4,   42.2,   42.3,   42.2,   42.3,   41.7,   41.8,   42.2,   42.1,   42.1,  999.0,   41.7,   41.6,   42.7,   41.6,   41.5
2000/12/24 17:30,  999.0,  999.0,  999.0,  999.0,  999.0,   21.5,   21.8,   21.1,  999.0,   21.3,  999.0,   21.6,   21.3,   21.8,   22.4,   21.9,   24.2,   25.5,   26.0,   27.5,   28.2,   29.3,  999.0,   32.4,   34.7,   33.3,   35.2,   35.4,   35.3,  999.0,  999.0,   42.0,   41.5,  999.0,   41.6,   41.5,   41.8,   41.9,   41.4,   42.4,  999.0,   41.3,   41.7,   42.0,   42.2,   41.4,  999.0,   41.6,   41.6,  999.0,   42.1,   40.9,   42.1,   42.0,   41.8,   42.4,  999.0,   41.5
2000/12/24 17:40,  999.0,  999.0,  999.0,  999.0,  999.0,   21.4,  999.0,  999.0,   21.3,   20.8,  999.0,   21.2,   21.6,   22.3,   22.3,   23.4,   23.5,  999.0,   25.8,   26.5,   27.0,   27.3,   28.1,   30.1,   30.9,   32.9,   32.9,   34.0,   33.9,   35.7,   35.7,  999.0,   37.2,  999.0,   39.6,   40.3,   41.3,   42.0,   41.7,   41.6,   41.5,   41.5,   41.7,   41.7,   41.7,   41.9,   42.1,   41.4,   42.1,  999.0,   41.9,   41.8,   41.7,   41.4,   42.4,   42.5,   42.2,   41.7
2000/12/24 17:50,  999.0,  999.0,   21.1,   21.1,   19.6,  999.0,  999.0,   21.7,   21.5,   21.1,   21.3,   21.3,   20.8,   21.5,   23.6,  999.0,   23.4,   24.4,   25.0,   26.2,   28.0,   27.4,   28.8,   31.2,   31.7,   32.3,   33.3,   33.4,   35.2,   36.3,  999.0,   40.0,  999.0,   40.4,   39.3,  999.0,   42.1,   41.8,   41.4,   41.7,   41.7,  999.0,   42.1,   41.6,   41.6,   41.6,   41.7,   41.3,  999.0,   41.8,  999.0,   42.1,  999.0,   42.0,   40.8,   41.4,   41.7,   41.5
2000/12/24 18:00,  999.0,  999.0,  999.0,   21.3,  999.0,   21.2,   21.6,   21.6,   21.3,   21.0,   21.3,   21.5,   21.5,   22.1,   21.6,   23.4,   24.7,   25.8,   28.4,   28.1,   29.5,   30.4,  999.0,  999.0,   35.0,   35.5,   37.4,   40.2,   38.5,  999.0,  999.0,   41.7,   41.6,  999.0,   42.4,   41.8,   41.3,   42.0,   41.2,   41.4,   41.5,   41.7,   41.5,   41.6,   41.5,  999.0,   41.3,  999.0,   41.7,   41.8,   41.4,   41.7,   41.7,   41.9,   41.0,   41.0,   41.2,   41.8
2000/12/24 18:10,  999.0,  999.0,   21.2,   21.5,   21.5,   21.4,   21.1,   21.0,  999.0,   20.5,   21.6,   21.2,   20.6,   20.5,   20.7,   21.3,   22.3,   23.3,   24.3,  999.0,   27.0,   27.7,   29.3,   29.8,  999.0,   34.1,   34.4,   34.4,   34.1,  999.0,   36.8,   38.4,   41.2,   41.1,   40.3,   40.7,   40.5,   41.1,   41.1,   41.0,   41.1,   41.2,   40.7,   41.0,   41.3,   41.4,   41.3,   41.7,   41.7,  999.0,   41.9,  999.0,   41.3,  999.0,   41.2,   41.2,   40.9,   41.4
2000/12/24 18:20,  999.0,   20.6,   20.9,   21.3,   21.1,   21.0,   21.0,  999.0,   21.1,   20.8,   20.6,   21.1,   21.2,   20.7,   20.6,   20.8,  999.0,   22.7,   23.8,   24.6,   25.3,   26.7,   27.5,  999.0,   30.2,   29.5,   31.3,   35.3,   36.7,   33.8,   39.1,   35.6,   37.2,   36.0,   36.9,   40.5,   40.1,   40.1,  999.0,   40.6,   40.8,   41.0,   41.0,   41.1,  999.0,  999.0,  999.0,   40.9,   41.0,   40.9,   40.8,   40.9,   40.8,   41.1,   41.2,   40.8,   40.8,   41.4
2000/12/24 18:30,  999.0,  999.0,   21.1,   21.5,   20.3,   21.1,   20.9,   20.7,   21.1,   21.3,   20.9,   21.2,   21.2,   21.1,   21.6,   23.5,   23.0,   25.1,   25.6,  999.0,   27.7,   27.6,   28.6,   29.1,   31.3,   31.5,   32.7,   32.5,  999.0,   34.7,   34.3,   36.6,   38.0,   38.3,   38.8,   40.9,   40.1,   41.1,  999.0,   41.3,  999.0,   41.4,   41.3,   41.3,   41.8,   41.8,   41.1,   41.0,   41.4,  999.0,   41.2,   40.9,   41.4,   41.1,   41.2,   41.1,   41.4,   40.9
2000/12/24 18:40,  999.0,  999.0,  999.0,  999.0,  999.0,   20.0,   20.8,   21.8,  999.0,  999.0,  999.0,   21.3,   21.3,   21.5,  999.0,   23.0,   24.1,  999.0,   26.8,  999.0,   26.6,   27.0,   29.4,   29.6,   31.2,   31.1,   32.5,   33.4,   31.5,   38.7,   36.7,   37.5,   36.0,  999.0,   36.7,   38.6,   38.6,   38.9,   40.4,   41.0,   41.6,   41.4,   42.1,   41.8,   41.2,   43.2,  999.0,   42.9,  999.0,   41.7,   41.7,   42.3,   41.3,   42.3,   41.6,   41.6,   42.3,  999.0
2000/12/24 18:50,  999.0,  999.0,  999.0,   21.9,   21.4,   21.3,   21.2,   21.5,   21.3,  999.0,   21.1,   21.5,   21.2,   20.6,   21.5,   21.7,  999.0,   24.4,   25.1,  999.0,   28.2,  999.0,   29.6,   32.1,   30.4,   33.3,   33.0,  999.0,   35.0,  999.0,   37.9,  999.0,  999.0,   41.8,   41.9,   41.2,   42.9,  999.0,  999.0,   40.8,  999.0,   42.1,   42.0,   41.9,  999.0,   41.5,  999.0,  999.0,   42.8,  999.0,   41.7,   42.3,   42.2,   41.4,  999.0,  999.0,  999.0,   41.5
2000/12/24 19:00,  999.0,   21.9,    0.7,   22.3,   20.6,  999.0,  999.0,   21.9,   21.3,  999.0,  999.0,   21.6,   21.3,   20.8,  999.0,  999.0,   22.7,   23.3,   25.2,   25.6,  999.0,   27.8,   29.2,   30.7,   31.4,  999.0,   33.4,   35.0,   35.4,   36.7,   37.8,  999.0,  999.0,   40.7,  999.0,   42.4,  999.0,   41.8,   41.9,   41.9,   42.9,   42.2,  999.0,  999.0,   42.0,   42.1,  999.0,   43.4,   41.9,   42.4,  999.0,   42.4,   42.1,   42.3,   42.1,   42.2,  999.0,  999.0
2000/12/24 19:10,  999.0,    8.0,    9.6,    6.3,   11.5,    9.8,    0.8,    0.9,    0.6,    4.4,    3.8,  999.0,  999.0,  999.0,  999.0,  999.0,  999.0,  999.0,  -20.5,  999.0,  -21.0,  -10.0,  -20.9,  -20.8,  999.0,  999.0,  999.0,  999.0,  999.0,  999.0,  999.0,  999.0,  999.0,  999.0,  999.0,  999.0,  999.0,  999.0,  999.0,  999.0,  999.0,  999.0,  999.0,  999.0,  999.0,  999.0,  999.0,  999.0,  999.0,  999.0,  999.0,  999.0,  999.0,  999.0,  999.0,  999.0,  999.0,  999.0
2000/12/24 19:20,  999.0,  999.0,   12.9,   18.6,   12.6,    7.4,    3.4,    4.0,    7.1,   10.0,   11.9,  999.0,   12.3,  999.0,  999.0,  999.0,  999.0,  999.0,  999.0,  999.0,  999.0,  999.0,  999.0,  999.0,  999.0,  999.0,  999.0,  999.0,  999.0,  999.0,  999.0,  999.0,  999.0,  999.0,  999.0,  999.0,  999.0,  999.0,  999.0,  999.0,  999.0,  999.0,  999.0,  999.0,  999.0,  999.0,  999.0,  999.0,  999.0,  999.0,  999.0,  999.0,  999.0,  999.0,  999.0,  999.0,  999.0,  999.0
2000/12/24 19:30,  999.0,    6.9,    1.5,    6.8,    6.7,   11.5,   10.1,    8.7,   11.3,  999.0,  999.0,  999.0,  999.0,  999.0,    4.7,  999.0,  999.0,  999.0,  999.0,  999.0,  999.0,  999.0,  999.0,  999.0,  999.0,  999.0,   -2.7,  999.0,  999.0,  999.0,  999.0,  999.0,  999.0,  999.0,  999.0,  999.0,  999.0,  999.0,  999.0,  999.0,  999.0,  999.0,  999.0,  999.0,  999.0,  999.0,  999.0,  999.0,  999.0,  999.0,  999.0,  999.0,  999.0,  999.0,  999.0,  999.0,  999.0,  999.0
2000/12/24 19:40,  999.0,    9.1,    9.1,   10.5,   11.5,   11.6,   11.6,   12.4,  999.0,  999.0,  999.0,  999.0,  999.0,  999.0,    1.5,  999.0,  999.0,  999.0,  999.0,  999.0,  999.0,  999.0,  999.0,  999.0,   -1.4,  999.0,  999.0,  999.0,  999.0,  999.0,  999.0,  999.0,  999.0,  999.0,  999.0,  999.0,  999.0,  -21.6,  -20.8,  999.0,  -20.9,  999.0,  999.0,  999.0,  999.0,  999.0,  999.0,  999.0,  999.0,  999.0,  999.0,  999.0,  999.0,  999.0,  999.0,  999.0,  999.0,  999.0
2000/12/24 19:50,  999.0,    9.8,    6.9,   10.7,  999.0,   11.3,  999.0,  999.0,  999.0,  999.0,   10.2,  999.0,  999.0,  999.0,  999.0,  999.0,  999.0,  999.0,  999.0,  999.0,  999.0,  999.0,  999.0,  999.0,  999.0,  999.0,  999.0,  999.0,  999.0,  999.0,  999.0,  999.0,  999.0,  999.0,  999.0,  999.0,  999.0,  999.0,  999.0,  999.0,  999.0,  999.0,  999.0,  999.0,  999.0,  999.0,  999.0,  999.0,  999.0,  999.0,  999.0,  999.0,  999.0,  999.0,  999.0,  999.0,  999.0,  999.0
2000/12/24 20:00,  999.0,   10.7,    9.1,    1.0,    5.9,   12.2,  999.0,  999.0,    0.1,   13.4,  999.0,    0.0,    2.7,  999.0,  999.0,  999.0,  999.0,  999.0,  999.0,  999.0,  999.0,  999.0,  999.0,  999.0,  999.0,  999.0,  999.0,  999.0,  999.0,  999.0,  999.0,  999.0,  999.0,  999.0,  999.0,  999.0,  999.0,  999.0,  999.0,  999.0,  999.0,  999.0,  999.0,  999.0,  999.0,  999.0,  999.0,  999.0,  999.0,  999.0,  999.0,  999.0,  999.0,  999.0,  999.0,  999.0,  999.0,  999.0
2000/12/24 20:10,  999.0,    9.9,    8.9,   13.7,   11.9,   13.0,   13.4,   21.8,   21.8,   21.8,   21.5,  999.0,   21.3,   21.3,   20.8,  999.0,   20.0,  999.0,   17.0,   15.6,  999.0,   14.0,   12.5,   11.5,   10.7,    8.9,    9.2,    5.7,    5.5,    5.5,  999.0,    1.3,  999.0,   -0.4,    0.4,    0.4,    0.8,  999.0,    0.9,    0.7,   -0.2,    0.9,    0.4,    0.1,    0.6,  999.0,    0.5,    1.4,    0.9,    0.5,    1.1,    0.6,    1.6,  999.0,    0.9,  999.0,  999.0,    0.6
2000/12/24 20:20,  999.0,   14.5,   13.1,   12.5,  999.0,   13.6,   13.5,   17.5,   21.1,  999.0,   21.8,   22.9,   19.6,   20.2,   19.6,   20.3,   20.0,   18.1,  999.0,   16.3,   14.6,   14.9,  999.0,  999.0,   10.2,  999.0,    6.8,    7.4,    7.2,    6.0,    1.8,    2.2,    8.2,    0.8,    0.9,    5.1,    4.8,    0.6,    1.8,    2.8,    0.5,  999.0,    0.7,    0.4,  999.0,    0.7,  999.0,    1.0,  999.0,  999.0,  999.0,    0.4,  999.0,    0.9,    1.3,  999.0,   -0.4,    0.7
2000/12/24 20:30,  999.0,  999.0,  999.0,   13.9,   10.0,   13.7,  999.0,  999.0,   19.5,  999.0,   21.5,   21.4,   20.7,  999.0,   20.9,   20.9,   19.6,   18.0,   16.9,   15.8,  999.0,  999.0,  999.0,  999.0,   10.2,  999.0,    6.5,    6.7,  999.0,    5.1,  999.0,    2.1,  999.0,    0.3,    0.6,    0.6,    0.5,    0.8,    0.7,    1.2,    0.7,  999.0,    0.8,    1.0,    0.4,    0.5,    0.9,  999.0,  999.0,    1.1,    1.0,    0.3,  999.0,    0.5,    0.7,  999.0,    1.1,    0.2
2000/12/24 20:40,  999.0,    8.9,   10.4,   12.9,   10.8,  999.0,  999.0,  999.0,  999.0,  999.0,  999.0,  999.0,   12.7,    8.3,  999.0,  999.0,  999.0,    9.4,  999.0,  999.0,  999.0,  999.0,  999.0,  999.0,  999.0,  999.0,  999.0,  999.0,  999.0,  999.0,  999.0,  999.0,  999.0,  999.0,  999.0,  999.0,  999.0,  999.0,  999.0,  999.0,  999.0,  999.0,  999.0,  999.0,  999.0,  999.0,  999.0,  999.0,  999.0,  999.0,  999.0,  999.0,  999.0,  999.0,  999.0,  999.0,  999.0,  999.0
2000/12/24 20:50,  999.0,    9.9,   11.3,  999.0,  999.0,   22.6,   23.6,  999.0,  999.0,   21.5,   21.2,  999.0,   -5.9,  -21.5,  999.0,  999.0,  -22.0,   19.1,  999.0,  999.0,  -11.6,  999.0,  -27.3,  999.0,   -8.3,   -7.9,  -32.2,   11.0,  -32.7,  999.0,  999.0,  -35.1,    7.5,  -36.4,  999.0,  -40.2,  999.0,  999.0,  -20.0,  999.0,  -42.7,  -41.7,    1.2,  -42.3,  -41.9,  -42.1,  -41.8,  -41.8,  999.0,  999.0,  -41.5,  -42.5,  -41.5,  999.0,  -41.5,  -41.6,  -40.9,  -41.5
2000/12/24 21:00,  999.0,    7.6,   10.4,   13.8,  999.0,  999.0,  999.0,  999.0,   -0.4,   -2.8,   -3.3,  999.0,  999.0,   13.5,   11.5,   10.3,    1.2,    0.2,   -2.3,  999.0,  999.0,  999.0,  -28.7,  999.0,  999.0,  -33.4,  -32.8,  -33.3,  -39.3,  999.0,  999.0,  -42.2,  999.0,  999.0,  999.0,  -30.2,  999.0,  999.0,  -41.6,  999.0,  999.0,  999.0,  -41.3,  999.0,  -41.7,  -41.8,  -42.2,  999.0,  -42.1,  -42.4,  -42.4,  999.0,  999.0,  999.0,  999.0,  -42.7,  999.0,  -40.9
2000/12/24 21:10,  999.0,    9.1,   11.4,  999.0,  999.0,   11.3,   12.7,  999.0,   11.6,   12.0,  999.0,  999.0,  999.0,  999.0,  999.0,  999.0,  999.0,  999.0,   -5.8,  999.0,  999.0,  999.0,  999.0,  999.0,  999.0,  999.0,  999.0,  999.0,  999.0,  999.0,  -35.0,  -35.3,  -35.8,  999.0,  999.0,  -38.5,  -39.4,  -39.0,  999.0,  -42.0,  -41.4,  -42.0,  -41.5,  -42.3,  -41.6,  -41.6,  -41.9,  -41.6,  999.0,  999.0,  -41.5,  -41.6,  -42.2,  -41.7,  -41.6,  -42.5,  -42.0,  -42.0
2000/12/24 21:20,  999.0,   11.0,   10.6,   11.5,  999.0,  999.0,   12.0,   13.3,  999.0,    8.3,  999.0,   10.9,  999.0,  999.0,  999.0,  999.0,  999.0,  999.0,  999.0,  999.0,  999.0,  999.0,  999.0,  999.0,  999.0,  999.0,  999.0,  999.0,  999.0,  999.0,  999.0,  999.0,  999.0,  999.0,  999.0,  999.0,  999.0,  999.0,  999.0,  999.0,  999.0,  999.0,  999.0,  999.0,  999.0,  999.0,  999.0,  999.0,  999.0,  999.0,  999.0,  999.0,  999.0,  999.0,  999.0,  999.0,  999.0,  999.0
2000/12/24 21:30,  999.0,    9.8,   14.0,   11.3,   14.0,  999.0,  999.0,  999.0,    5.3,  999.0,  999.0,  999.0,  999.0,  999.0,  999.0,  -21.9,  -23.1,  999.0,  -23.1,  999.0,  999.0,  -28.4,  -26.5,  -28.5,  -29.4,  999.0,  999.0,  -33.5,  999.0,  -34.5,  -35.4,  999.0,  -37.7,  -37.3,  -39.0,  -39.5,  -39.8,  999.0,  -41.4,  -41.2,  999.0,  999.0,  999.0,  999.0,  999.0,  -41.6,  999.0,  -41.5,  999.0,  999.0,  999.0,  999.0,  -41.3,  -40.7,  999.0,  -41.7,  -41.9,  999.0
2000/12/24 21:40,  999.0,   10.0,    9.7,   10.6,   10.5,  999.0,   12.2,  999.0,  999.0,   12.3,   13.9,   12.1,  999.0,   13.2,  999.0,  999.0,  999.0,  999.0,  999.0,  999.0,  999.0,  999.0,  999.0,  999.0,  999.0,  999.0,  999.0,  999.0,  999.0,  999.0,  999.0,  999.0,  999.0,  999.0,  999.0,  999.0,  999.0,  999.0,  999.0,  999.0,  999.0,  999.0,  999.0,  999.0,  999.0,  999.0,  999.0,  999.0,  999.0,  999.0,  999.0,  999.0,  999.0,  999.0,  999.0,  999.0,  999.0,  999.0
2000/12/24 21:50,  999.0,   10.7,   10.6,   11.0,   13.4,  999.0,  999.0,  999.0,  999.0,   12.3,   14.0,  999.0,   15.6,  999.0,  999.0,  999.0,  999.0,  999.0,  999.0,  999.0,  999.0,  999.0,  999.0,  999.0,  999.0,  999.0,    3.1,  999.0,  999.0,  999.0,  999.0,  999.0,  999.0,  999.0,  999.0,  999.0,  999.0,  999.0,    1.0,    0.9,  999.0,  999.0,  999.0,  999.0,  999.0,  999.0,  999.0,    0.7,    0.9,    0.1,   -0.2,  999.0,    0.5,  999.0,    1.1,    0.7,  999.0,    0.4
2000/12/24 22:00,  999.0,    8.1,  999.0,   10.5,   11.3,   14.2,   16.7,   16.8,   14.6,   20.4,   12.9,   17.9,  999.0,   21.2,  999.0,  999.0,   17.9,  999.0,   18.3,   13.8,   16.9,  999.0,  999.0,  999.0,    8.8,    7.7,   11.7,    5.2,    7.1,  999.0,  999.0,    4.7,    3.6,    3.2,    4.9,    2.1,    1.2,    2.2,    0.8,    1.3,   -0.1,    0.8,    0.8,    0.9,  999.0,    1.4,    1.1,    0.8,    0.5,  999.0,    1.0,    0.2,    1.0,  999.0,    0.5,    1.2,    0.2,    0.6
2000/12/24 22:10,  999.0,   16.7,   12.5,   14.9,   12.6,   13.0,  999.0,  999.0,   21.2,  999.0,   21.6,   20.9,   21.3,   22.1,   20.7,   20.1,   19.8,   17.5,   18.0,   17.2,   16.9,   15.4,   14.2,   13.9,   12.9,   12.2,   11.5,  999.0,   10.0,    9.0,    7.9,  999.0,    7.0,    6.1,    5.3,  999.0,    2.5,    2.8,  999.0,  999.0,  999.0,    0.8,    0.6,  999.0,    0.6,  999.0,    0.5,    0.5,   -0.0,    0.1,    0.9,    0.9,    0.8,    1.1,    0.9,  999.0,    0.5,    1.4
2000/12/24 22:20,  999.0,   22.7,  999.0,   11.4,   11.6,    9.3,  999.0,   12.6,   21.6,  999.0,   21.4,  999.0,   20.7,  999.0,   21.5,   19.8,   19.5,   18.0,   17.5,   16.3,   16.0,   13.0,   14.2,   12.8,   10.9,    9.6,   10.4,    9.3,    7.0,  999.0,    5.7,    7.4,    4.7,    3.1,    0.9,    1.9,    1.7,    2.1,    0.7,    1.3,    0.6,    0.3,    0.5,    0.0,    0.8,    0.7,    0.3,  999.0,    0.3,    0.9,  999.0,  999.0,    0.8,    1.1,    0.3,    0.8,    0.3,    0.9
2000/12/24 22:30,  999.0,  999.0,  999.0,  999.0,  999.0,   22.1,   21.9,   20.9,   21.9,   21.0,   20.9,  999.0,   21.2,   21.7,   19.2,   20.3,   19.0,   17.2,  999.0,   15.5,   13.8,  999.0,   11.4,  999.0,  999.0,    9.0,    7.8,    5.9,  999.0,  999.0,    2.5,  999.0,    1.3,  999.0,    1.7,    0.8,    0.9,    0.7,  999.0,    1.0,    0.7,  999.0,    0.5,  999.0,    1.4,  999.0,  999.0,    1.0,    0.5,    0.8,    0.4,  999.0,  999.0,  999.0,    1.0,   -0.1,   -0.0,    1.2
2000/12/24 22:40,  999.0,    8.3,    9.4,    9.8,   11.0,   11.7,    5.3,  999.0,  999.0,    5.3,  999.0,  999.0,  999.0,  999.0,  999.0,  999.0,  999.0,  999.0,  999.0,  999.0,  999.0,  999.0,  999.0,  999.0,  999.0,  999.0,  999.0,  999.0,  999.0,  999.0,  999.0,  999.0,  999.0,  999.0,  999.0,  999.0,  999.0,  -13.8,  999.0,  999.0,  999.0,  999.0,  999.0,  999.0,  999.0,  999.0,  999.0,  999.0,  999.0,  999.0,  999.0,  999.0,  999.0,  999.0,  999.0,  999.0,  999.0,  999.0
2000/12/24 22:50,  999.0,  999.0,    9.1,   10.5,   11.3,  999.0,  999.0,  999.0,   22.0,   12.5,   21.1,  999.0,  999.0,  999.0,   16.8,  999.0,  999.0,   19.7,   18.2,  999.0,  999.0,  999.0,  999.0,  999.0,   14.5,   11.8,  999.0,  999.0,   11.7,    8.2,    6.8,    7.3,  999.0,  999.0,    7.7,  999.0,    5.8,    1.3,    4.0,  999.0,    3.3,    2.2,    2.1,  999.0,  999.0,    1.2,    1.0,    0.9,    0.5,    1.3,  999.0,    0.8,   -0.2,    0.1,    1.0,    0.1,    1.1,    1.4
2000/12/24 23:00,  999.0,  999.0,   10.0,   10.0,   13.5,  999.0,   16.6,   13.7,   13.5,  999.0,   21.3,  999.0,  999.0,  999.0,  999.0,   21.1,   20.9,  999.0,   21.8,  999.0,  999.0,  999.0,   17.4,  999.0,  999.0,  999.0,   14.8,  999.0,  999.0,   12.5,   11.3,   11.2,   10.4,    9.8,    9.7,  999.0,  999.0,    6.3,  999.0,    4.6,    4.9,    4.6,    4.2,    1.6,  999.0,    1.8,  999.0,    0.5,  999.0,    0.3,  999.0,    0.8,    0.9,    0.6,    0.2,    0.5,   -0.0,    0.9
2000/12/24 23:10,  999.0,  999.0,  999.0,    9.8,    9.6,    9.5,  999.0,  999.0,  999.0,  999.0,  999.0,  999.0,  999.0,  999.0,   20.5,   21.0,  999.0,  999.0,   21.0,  999.0,   16.7,   16.9,  999.0,   15.3,  999.0,   14.9,  999.0,   13.1,   11.4,  999.0,   10.4,    8.4,    6.6,    6.7,    6.7,    6.2,    4.2,    3.8,    4.8,  999.0,    1.4,    1.2,    0.6,    0.3,    0.7,    0.9,    0.4,    1.0,  999.0,    0.4,    0.5,  999.0,  999.0,    2.2,    0.3,  999.0,    1.0,    0.1
2000/12/24 23:20,  999.0,  999.0,    9.4,    9.4,   10.4,   10.5,  999.0,   12.1,  999.0,   19.4,   21.6,   21.3,   22.2,  999.0,   21.3,   21.0,   21.0,  999.0,   20.3,   19.6,   18.2,  999.0,  999.0,   13.7,   12.6,   12.0,   12.0,   12.0,   11.8,  999.0,    8.9,    5.6,    4.1,    1.2,  999.0,    2.6,    2.9,    1.7,    0.6,    1.5,  999.0,    1.4,    0.5,    1.3,    1.7,    1.3,  999.0,    1.0,    0.6,    1.0,  999.0,    1.0,    0.9,    0.7,    0.9,   -0.3,    0.7,    0.8
2000/12/24 23:30,  999.0,    7.1,    8.4,    9.5,    9.7,   10.5,  999.0,   20.1,  999.0,  999.0,   21.3,   21.7,   20.8,  999.0,  999.0,   21.0,   20.9,   20.7,   20.8,  999.0,  999.0,   16.1,   15.9,   15.6,    8.1,   10.5,    7.3,    5.2,    3.6,    5.9,    3.8,    2.6,  999.0,    1.0,    1.3,    0.8,    0.9,    0.9,    1.3,    0.9,    0.7,    1.3,    1.2,    0.7,    0.1,    0.5,    0.9,    0.8,    0.3,    0.2,    0.3,  999.0,    0.3,    0.1,  999.0,    0.2,  999.0,  999.0
2000/12/24 23:40,  999.0,    5.9,    7.7,    8.1,    9.9,   10.2,  999.0,   21.9,   21.3,   20.9,  999.0,  999.0,   21.2,   21.5,   20.5,   19.8,   19.3,   17.0,   16.1,  999.0,   15.5,   13.9,   10.6,   10.8,    8.0,    8.4,    5.5,    7.3,    4.0,    2.5,    4.4,    1.2,    1.4,    1.3,  999.0,  999.0,    0.2,  999.0,    0.6,    1.2,    0.4,  999.0,    0.5,    1.1,    1.1,    1.4,    0.0,    0.6,    0.3,    0.8,    0.9,    0.7,    0.9,    1.8,    1.1,    0.8,  999.0,    1.2
2000/12/24 23:50,  999.0,   23.3,   22.3,  999.0,   21.0,   21.5,   20.9,  999.0,  999.0,  999.0,   21.2,   21.5,   21.2,   20.4,   20.7,   19.9,  999.0,   18.4,   17.0,   14.8,   14.0,  999.0,   13.0,    9.9,    8.9,    8.7,    7.1,    6.5,    5.0,  999.0,  999.0,    1.8,    0.3,    0.7,    0.2,    0.9,    1.4,    0.5,    1.0,    0.8,    0.5,    0.6,    0.4,  999.0,    0.9,    1.0,    1.1,    0.4,    0.6,    1.1,    1.2,    1.0,    1.0,   -0.2,    0.6,    0.6,    0.9,    1.1
